Time,TemperatureF,DewpointF,PressureIn,WindDirection,WindDirectionDegrees,WindSpeedMPH,WindSpeedGustMPH,Humidity,HourlyPrecipIn,Conditions,Clouds,dailyrainin,SoftwareType,DateUTC
2013-03-02 00:00:00,11.9,7.5,30.36,North,5,1.0,1.0,82,0.00,,,0.00,Wunderground v.1.13,2013-03-02 06:00:00,
2013-03-02 00:02:00,12.0,7.6,30.36,North,5,1.0,1.0,82,0.00,,,0.00,Wunderground v.1.13,2013-03-02 06:02:00,
2013-03-02 00:06:00,12.0,7.6,30.36,NNW,346,1.0,1.0,82,0.00,,,0.00,Wunderground v.1.13,2013-03-02 06:06:00,
2013-03-02 00:08:00,12.0,7.6,30.36,NNW,345,1.0,4.0,82,0.00,,,0.00,Wunderground v.1.13,2013-03-02 06:08:00,
2013-03-02 00:12:00,12.1,7.7,30.36,NNW,346,2.0,4.0,82,0.00,,,0.00,Wunderground v.1.13,2013-03-02 06:12:00,
2013-03-02 00:14:00,12.1,7.7,30.36,NNW,347,2.0,4.0,82,0.00,,,0.00,Wunderground v.1.13,2013-03-02 06:14:00,
2013-03-02 00:17:00,12.0,7.6,30.36,NNW,347,2.0,2.0,82,0.00,,,0.00,Wunderground v.1.13,2013-03-02 06:17:00,
2013-03-02 00:19:00,12.0,7.6,30.36,NNW,347,2.0,2.0,82,0.00,,,0.00,Wunderground v.1.13,2013-03-02 06:19:00,
2013-03-02 00:23:00,12.0,7.6,30.36,NNW,347,1.0,2.0,82,0.00,,,0.00,Wunderground v.1.13,2013-03-02 06:23:00,
2013-03-02 00:29:00,11.6,7.2,30.36,NNW,346,1.0,1.0,82,0.00,,,0.00,Wunderground v.1.13,2013-03-02 06:29:00,
2013-03-02 00:31:00,11.5,7.1,30.36,NNW,347,1.0,1.0,82,0.00,,,0.00,Wunderground v.1.13,2013-03-02 06:31:00,
2013-03-02 00:33:00,11.3,6.9,30.36,NNW,347,0.0,1.0,82,0.00,,,0.00,Wunderground v.1.13,2013-03-02 06:33:00,
2013-03-02 00:35:00,11.1,6.7,30.36,NNW,347,0.0,0.0,82,0.00,,,0.00,Wunderground v.1.13,2013-03-02 06:35:00,
2013-03-02 00:37:00,10.9,6.5,30.36,NNW,347,0.0,1.0,82,0.00,,,0.00,Wunderground v.1.13,2013-03-02 06:37:00,
2013-03-02 00:38:00,10.7,6.3,30.36,NNW,347,0.0,1.0,82,0.00,,,0.00,Wunderground v.1.13,2013-03-02 06:38:00,
2013-03-02 00:41:00,10.3,5.9,30.36,NNW,347,0.0,0.0,82,0.00,,,0.00,Wunderground v.1.13,2013-03-02 06:41:00,
2013-03-02 00:44:00,10.2,5.8,30.36,NNW,347,0.0,0.0,82,0.00,,,0.00,Wunderground v.1.13,2013-03-02 06:44:00,
2013-03-02 00:47:00,9.8,5.4,30.36,NNW,346,0.0,2.0,82,0.00,,,0.00,Wunderground v.1.13,2013-03-02 06:47:00,
2013-03-02 00:50:00,9.5,5.4,30.36,NNW,346,1.0,1.0,83,0.00,,,0.00,Wunderground v.1.13,2013-03-02 06:50:00,
2013-03-02 00:52:00,9.3,5.2,30.36,NNW,346,1.0,1.0,83,0.00,,,0.00,Wunderground v.1.13,2013-03-02 06:52:00,
2013-03-02 00:57:00,8.9,5.1,30.36,NNW,346,1.0,2.0,84,0.00,,,0.00,Wunderground v.1.13,2013-03-02 06:57:00,
2013-03-02 00:58:00,8.8,5.0,30.36,NNW,346,1.0,3.0,84,0.00,,,0.00,Wunderground v.1.13,2013-03-02 06:58:00,
2013-03-02 01:01:00,8.6,4.8,30.36,NNW,346,2.0,4.0,84,0.00,,,0.00,Wunderground v.1.13,2013-03-02 07:01:00,
2013-03-02 01:04:00,8.3,4.5,30.36,NNW,342,2.0,4.0,84,0.00,,,0.00,Wunderground v.1.13,2013-03-02 07:04:00,
2013-03-02 01:05:00,8.2,4.4,30.36,NNW,343,2.0,3.0,84,0.00,,,0.00,Wunderground v.1.13,2013-03-02 07:05:00,
2013-03-02 01:11:00,7.9,4.3,30.36,NNW,343,3.0,3.0,85,0.00,,,0.00,Wunderground v.1.13,2013-03-02 07:11:00,
2013-03-02 01:13:00,7.8,4.2,30.36,NNW,342,3.0,3.0,85,0.00,,,0.00,Wunderground v.1.13,2013-03-02 07:13:00,
2013-03-02 01:15:00,7.8,4.2,30.36,NNW,343,2.0,2.0,85,0.00,,,0.00,Wunderground v.1.13,2013-03-02 07:15:00,
2013-03-02 01:17:00,7.7,4.1,30.36,NNW,343,2.0,2.0,85,0.00,,,0.00,Wunderground v.1.13,2013-03-02 07:17:00,
2013-03-02 01:19:00,7.7,4.1,30.36,NNW,343,2.0,2.0,85,0.00,,,0.00,Wunderground v.1.13,2013-03-02 07:19:00,
2013-03-02 01:21:00,7.7,4.4,30.36,NNW,343,2.0,2.0,86,0.00,,,0.00,Wunderground v.1.13,2013-03-02 07:21:00,
2013-03-02 01:24:00,7.6,4.3,30.36,NNW,343,2.0,2.0,86,0.00,,,0.00,Wunderground v.1.13,2013-03-02 07:24:00,
2013-03-02 01:25:00,7.5,4.2,30.36,NNW,343,1.0,1.0,86,0.00,,,0.00,Wunderground v.1.13,2013-03-02 07:25:00,
2013-03-02 01:26:00,7.5,4.2,30.36,NNW,343,1.0,1.0,86,0.00,,,0.00,Wunderground v.1.13,2013-03-02 07:26:00,
2013-03-02 01:27:00,7.4,4.1,30.36,NNW,343,1.0,1.0,86,0.00,,,0.00,Wunderground v.1.13,2013-03-02 07:27:00,
2013-03-02 01:33:00,7.3,4.0,30.36,NNW,343,1.0,2.0,86,0.00,,,0.00,Wunderground v.1.13,2013-03-02 07:33:00,
2013-03-02 01:34:00,7.3,4.0,30.36,NNW,343,1.0,2.0,86,0.00,,,0.00,Wunderground v.1.13,2013-03-02 07:34:00,
2013-03-02 01:39:00,7.4,4.3,30.36,NNW,342,1.0,2.0,87,0.00,,,0.00,Wunderground v.1.13,2013-03-02 07:39:00,
2013-03-02 01:42:00,7.4,4.3,30.36,NNW,343,1.0,2.0,87,0.00,,,0.00,Wunderground v.1.13,2013-03-02 07:42:00,
2013-03-02 01:47:00,7.2,4.1,30.36,NNW,342,1.0,1.0,87,0.00,,,0.00,Wunderground v.1.13,2013-03-02 07:47:00,
2013-03-02 01:49:00,7.1,3.8,30.36,NNW,342,1.0,1.0,86,0.00,,,0.00,Wunderground v.1.13,2013-03-02 07:49:00,
2013-03-02 01:53:00,7.1,4.0,30.36,NNW,343,0.0,1.0,87,0.00,,,0.00,Wunderground v.1.13,2013-03-02 07:53:00,
2013-03-02 01:55:00,7.1,4.0,30.36,NNW,343,0.0,1.0,87,0.00,,,0.00,Wunderground v.1.13,2013-03-02 07:55:00,
2013-03-02 02:00:00,7.0,3.9,30.36,NNW,342,0.0,0.0,87,0.00,,,0.00,Wunderground v.1.13,2013-03-02 08:00:00,
2013-03-02 02:01:00,6.9,3.8,30.36,NNW,343,0.0,0.0,87,0.00,,,0.00,Wunderground v.1.13,2013-03-02 08:01:00,
2013-03-02 02:06:00,6.8,3.8,30.36,NNW,343,0.0,1.0,87,0.00,,,0.00,Wunderground v.1.13,2013-03-02 08:06:00,
2013-03-02 02:12:00,6.6,3.6,30.35,NNW,343,1.0,1.0,87,0.00,,,0.00,Wunderground v.1.13,2013-03-02 08:12:00,
2013-03-02 02:13:00,6.5,3.5,30.35,NNW,342,1.0,1.0,87,0.00,,,0.00,Wunderground v.1.13,2013-03-02 08:13:00,
2013-03-02 02:18:00,6.4,3.4,30.35,NNW,342,0.0,1.0,87,0.00,,,0.00,Wunderground v.1.13,2013-03-02 08:18:00,
2013-03-02 02:20:00,6.4,3.4,30.35,NNW,343,0.0,0.0,87,0.00,,,0.00,Wunderground v.1.13,2013-03-02 08:20:00,
2013-03-02 02:21:00,6.4,3.4,30.35,NNW,343,0.0,0.0,87,0.00,,,0.00,Wunderground v.1.13,2013-03-02 08:21:00,
2013-03-02 02:23:00,6.2,3.2,30.36,NNW,342,0.0,0.0,87,0.00,,,0.00,Wunderground v.1.13,2013-03-02 08:23:00,
2013-03-02 02:25:00,6.1,3.1,30.36,NNW,343,0.0,0.0,87,0.00,,,0.00,Wunderground v.1.13,2013-03-02 08:25:00,
2013-03-02 02:30:00,5.7,2.7,30.36,NNW,342,0.0,1.0,87,0.00,,,0.00,Wunderground v.1.13,2013-03-02 08:30:00,
2013-03-02 02:31:00,5.7,2.7,30.36,NNW,343,0.0,2.0,87,0.00,,,0.00,Wunderground v.1.13,2013-03-02 08:31:00,
2013-03-02 02:33:00,5.6,2.6,30.36,NNW,342,0.0,2.0,87,0.00,,,0.00,Wunderground v.1.13,2013-03-02 08:33:00,
2013-03-02 02:38:00,5.4,2.4,30.36,NNW,342,1.0,3.0,87,0.00,,,0.00,Wunderground v.1.13,2013-03-02 08:38:00,
2013-03-02 02:39:00,5.4,4.7,30.36,NNW,342,2.0,3.0,97,0.00,,,0.00,Wunderground v.1.13,2013-03-02 08:39:00,
2013-03-02 02:44:00,5.0,2.0,30.36,NNW,342,2.0,3.0,87,0.00,,,0.00,Wunderground v.1.13,2013-03-02 08:44:00,
2013-03-02 02:45:00,5.0,2.0,30.36,NNW,342,2.0,2.0,87,0.00,,,0.00,Wunderground v.1.13,2013-03-02 08:45:00,
2013-03-02 02:51:00,5.2,2.2,30.36,NNW,341,2.0,2.0,87,0.00,,,0.00,Wunderground v.1.13,2013-03-02 08:51:00,
2013-03-02 02:52:00,5.2,2.2,30.36,NNW,342,2.0,2.0,87,0.00,,,0.00,Wunderground v.1.13,2013-03-02 08:52:00,
2013-03-02 02:57:00,5.2,2.2,30.36,NNW,342,1.0,1.0,87,0.00,,,0.00,Wunderground v.1.13,2013-03-02 08:57:00,
2013-03-02 03:02:00,5.0,2.0,30.36,NNW,342,1.0,1.0,87,0.00,,,0.00,Wunderground v.1.13,2013-03-02 09:02:00,
2013-03-02 03:06:00,4.9,1.9,30.36,NNW,342,0.0,1.0,87,0.00,,,0.00,Wunderground v.1.13,2013-03-02 09:06:00,
2013-03-02 03:09:00,4.8,1.8,30.36,NNW,342,0.0,1.0,87,0.00,,,0.00,Wunderground v.1.13,2013-03-02 09:09:00,
2013-03-02 03:12:00,4.7,1.7,30.36,NNW,341,0.0,0.0,87,0.00,,,0.00,Wunderground v.1.13,2013-03-02 09:12:00,
2013-03-02 03:16:00,4.4,1.4,30.36,NNW,341,0.0,0.0,87,0.00,,,0.00,Wunderground v.1.13,2013-03-02 09:16:00,
2013-03-02 03:18:00,4.2,1.2,30.36,NNW,342,0.0,0.0,87,0.00,,,0.00,Wunderground v.1.13,2013-03-02 09:18:00,
2013-03-02 03:23:00,3.9,0.9,30.36,NNW,341,0.0,0.0,87,0.00,,,0.00,Wunderground v.1.13,2013-03-02 09:23:00,
2013-03-02 03:24:00,3.8,0.5,30.36,NNW,341,0.0,0.0,86,0.00,,,0.00,Wunderground v.1.13,2013-03-02 09:24:00,
2013-03-02 03:29:00,3.3,0.1,30.36,NNW,342,0.0,0.0,86,0.00,,,0.00,Wunderground v.1.13,2013-03-02 09:29:00,
2013-03-02 03:30:00,3.2,0.0,30.36,NNW,341,0.0,0.0,86,0.00,,,0.00,Wunderground v.1.13,2013-03-02 09:30:00,
2013-03-02 03:32:00,3.2,0.0,30.36,NNW,342,0.0,0.0,86,0.00,,,0.00,Wunderground v.1.13,2013-03-02 09:32:00,
2013-03-02 03:35:00,3.1,0.1,30.36,NNW,342,0.0,2.0,87,0.00,,,0.00,Wunderground v.1.13,2013-03-02 09:35:00,
2013-03-02 03:36:00,3.1,0.1,30.36,NNW,342,0.0,2.0,87,0.00,,,0.00,Wunderground v.1.13,2013-03-02 09:36:00,
2013-03-02 03:37:00,3.1,0.1,30.36,NNW,342,0.0,2.0,87,0.00,,,0.00,Wunderground v.1.13,2013-03-02 09:37:00,
2013-03-02 03:41:00,3.2,0.2,30.36,NNW,342,1.0,1.0,87,0.00,,,0.00,Wunderground v.1.13,2013-03-02 09:41:00,
2013-03-02 03:42:00,3.2,0.2,30.36,NNW,341,1.0,1.0,87,0.00,,,0.00,Wunderground v.1.13,2013-03-02 09:42:00,
2013-03-02 03:45:00,3.2,0.2,30.36,NNW,342,1.0,1.0,87,0.00,,,0.00,Wunderground v.1.13,2013-03-02 09:45:00,
2013-03-02 03:47:00,3.2,0.2,30.36,NNW,342,1.0,2.0,87,0.00,,,0.00,Wunderground v.1.13,2013-03-02 09:47:00,
2013-03-02 03:48:00,3.2,0.2,30.36,NNW,342,1.0,2.0,87,0.00,,,0.00,Wunderground v.1.13,2013-03-02 09:48:00,
2013-03-02 03:52:00,3.1,0.1,30.36,NNW,342,2.0,2.0,87,0.00,,,0.00,Wunderground v.1.13,2013-03-02 09:52:00,
2013-03-02 03:54:00,3.0,0.0,30.36,NNW,342,1.0,2.0,87,0.00,,,0.00,Wunderground v.1.13,2013-03-02 09:54:00,
2013-03-02 03:56:00,2.9,-0.1,30.36,NNW,342,1.0,1.0,87,0.00,,,0.00,Wunderground v.1.13,2013-03-02 09:56:00,
2013-03-02 03:59:00,2.8,-0.2,30.36,NNW,341,1.0,1.0,87,0.00,,,0.00,Wunderground v.1.13,2013-03-02 09:59:00,
2013-03-02 04:03:00,2.8,-0.2,30.36,NNW,341,0.0,1.0,87,0.00,,,0.00,Wunderground v.1.13,2013-03-02 10:03:00,
2013-03-02 04:04:00,2.8,-0.2,30.36,NNW,342,0.0,1.0,87,0.00,,,0.00,Wunderground v.1.13,2013-03-02 10:04:00,
2013-03-02 04:05:00,2.8,-0.2,30.36,NNW,342,0.0,1.0,87,0.00,,,0.00,Wunderground v.1.13,2013-03-02 10:05:00,
2013-03-02 04:06:00,2.8,-0.2,30.36,NNW,342,0.0,1.0,87,0.00,,,0.00,Wunderground v.1.13,2013-03-02 10:06:00,
2013-03-02 04:11:00,2.7,-0.3,30.36,NNW,342,1.0,1.0,87,0.00,,,0.00,Wunderground v.1.13,2013-03-02 10:11:00,
2013-03-02 04:12:00,2.6,-0.4,30.36,NNW,341,1.0,1.0,87,0.00,,,0.00,Wunderground v.1.13,2013-03-02 10:12:00,
2013-03-02 04:17:00,2.4,-0.6,30.36,NNW,342,1.0,1.0,87,0.00,,,0.00,Wunderground v.1.13,2013-03-02 10:17:00,
2013-03-02 04:19:00,2.4,-0.6,30.37,NNW,342,0.0,1.0,87,0.00,,,0.00,Wunderground v.1.13,2013-03-02 10:19:00,
2013-03-02 04:20:00,2.3,-0.9,30.37,NNW,342,0.0,0.0,86,0.00,,,0.00,Wunderground v.1.13,2013-03-02 10:20:00,
2013-03-02 04:25:00,2.1,-1.1,30.37,NNW,341,0.0,0.0,86,0.00,,,0.00,Wunderground v.1.13,2013-03-02 10:25:00,
2013-03-02 04:29:00,2.1,-1.1,30.37,NNW,342,0.0,0.0,86,0.00,,,0.00,Wunderground v.1.13,2013-03-02 10:29:00,
2013-03-02 04:30:00,2.2,-0.8,30.37,NNW,342,0.0,0.0,87,0.00,,,0.00,Wunderground v.1.13,2013-03-02 10:30:00,
2013-03-02 04:35:00,2.1,-1.1,30.37,NNW,341,1.0,1.0,86,0.00,,,0.00,Wunderground v.1.13,2013-03-02 10:35:00,
2013-03-02 04:36:00,2.1,-1.1,30.37,NNW,341,1.0,1.0,86,0.00,,,0.00,Wunderground v.1.13,2013-03-02 10:36:00,
2013-03-02 04:40:00,2.1,-1.1,30.37,NNW,341,1.0,1.0,86,0.00,,,0.00,Wunderground v.1.13,2013-03-02 10:40:00,
2013-03-02 04:41:00,2.0,-1.2,30.37,NNW,342,1.0,1.0,86,0.00,,,0.00,Wunderground v.1.13,2013-03-02 10:41:00,
2013-03-02 04:46:00,1.5,-1.7,30.36,NNW,342,0.0,0.0,86,0.00,,,0.00,Wunderground v.1.13,2013-03-02 10:46:00,
2013-03-02 04:48:00,1.2,-2.0,30.36,NNW,342,0.0,0.0,86,0.00,,,0.00,Wunderground v.1.13,2013-03-02 10:48:00,
2013-03-02 04:51:00,0.9,-2.3,30.36,NNW,342,0.0,0.0,86,0.00,,,0.00,Wunderground v.1.13,2013-03-02 10:51:00,
2013-03-02 04:55:00,0.5,-2.7,30.36,NNW,342,0.0,0.0,86,0.00,,,0.00,Wunderground v.1.13,2013-03-02 10:55:00,
2013-03-02 04:57:00,0.5,-2.7,30.36,NNW,341,0.0,0.0,86,0.00,,,0.00,Wunderground v.1.13,2013-03-02 10:57:00,
2013-03-02 05:01:00,0.3,-2.9,30.36,NNW,342,0.0,0.0,86,0.00,,,0.00,Wunderground v.1.13,2013-03-02 11:01:00,
2013-03-02 05:03:00,0.3,-2.9,30.37,NNW,342,0.0,0.0,86,0.00,,,0.00,Wunderground v.1.13,2013-03-02 11:03:00,
2013-03-02 05:04:00,0.2,-3.0,30.37,NNW,342,0.0,0.0,86,0.00,,,0.00,Wunderground v.1.13,2013-03-02 11:04:00,
2013-03-02 05:06:00,0.1,-3.1,30.36,NNW,342,0.0,0.0,86,0.00,,,0.00,Wunderground v.1.13,2013-03-02 11:06:00,
2013-03-02 05:11:00,-0.1,-3.3,30.36,NNW,342,0.0,0.0,86,0.00,,,0.00,Wunderground v.1.13,2013-03-02 11:11:00,
2013-03-02 05:12:00,-0.2,-3.4,30.36,NNW,342,0.0,0.0,86,0.00,,,0.00,Wunderground v.1.13,2013-03-02 11:12:00,
2013-03-02 05:17:00,-0.4,-3.6,30.36,NNW,342,0.0,0.0,86,0.00,,,0.00,Wunderground v.1.13,2013-03-02 11:17:00,
2013-03-02 05:21:00,-0.4,-3.6,30.36,NNW,342,0.0,0.0,86,0.00,,,0.00,Wunderground v.1.13,2013-03-02 11:21:00,
2013-03-02 05:23:00,-0.2,-3.4,30.36,NNW,342,0.0,0.0,86,0.00,,,0.00,Wunderground v.1.13,2013-03-02 11:23:00,
2013-03-02 05:25:00,-0.1,-3.0,30.36,NNW,342,0.0,0.0,87,0.00,,,0.00,Wunderground v.1.13,2013-03-02 11:25:00,
2013-03-02 05:26:00,0.0,-2.9,30.37,NNW,341,0.0,0.0,87,0.00,,,0.00,Wunderground v.1.13,2013-03-02 11:26:00,
2013-03-02 05:31:00,0.3,-2.7,30.37,NNW,342,0.0,0.0,87,0.00,,,0.00,Wunderground v.1.13,2013-03-02 11:31:00,
2013-03-02 05:32:00,0.4,-2.6,30.37,NNW,341,0.0,0.0,87,0.00,,,0.00,Wunderground v.1.13,2013-03-02 11:32:00,
2013-03-02 05:34:00,0.4,-2.6,30.37,NNW,342,0.0,0.0,87,0.00,,,0.00,Wunderground v.1.13,2013-03-02 11:34:00,
2013-03-02 05:37:00,0.4,-2.6,30.37,NNW,341,0.0,0.0,87,0.00,,,0.00,Wunderground v.1.13,2013-03-02 11:37:00,
2013-03-02 05:38:00,0.4,-2.6,30.37,NNW,342,0.0,0.0,87,0.00,,,0.00,Wunderground v.1.13,2013-03-02 11:38:00,
2013-03-02 05:40:00,0.4,-2.6,30.36,NNW,342,0.0,0.0,87,0.00,,,0.00,Wunderground v.1.13,2013-03-02 11:40:00,
2013-03-02 05:42:00,0.4,-2.8,30.36,NNW,342,0.0,0.0,86,0.00,,,0.00,Wunderground v.1.13,2013-03-02 11:42:00,
2013-03-02 05:43:00,0.4,-2.8,30.37,NNW,342,0.0,0.0,86,0.00,,,0.00,Wunderground v.1.13,2013-03-02 11:43:00,
2013-03-02 05:45:00,0.4,-2.8,30.37,NNW,342,0.0,0.0,86,0.00,,,0.00,Wunderground v.1.13,2013-03-02 11:45:00,
2013-03-02 05:47:00,0.4,-2.6,30.37,NNW,342,0.0,0.0,87,0.00,,,0.00,Wunderground v.1.13,2013-03-02 11:47:00,
2013-03-02 05:52:00,0.4,-2.8,30.37,NNW,342,0.0,0.0,86,0.00,,,0.00,Wunderground v.1.13,2013-03-02 11:52:00,
2013-03-02 05:53:00,0.4,-2.8,30.37,NNW,342,0.0,0.0,86,0.00,,,0.00,Wunderground v.1.13,2013-03-02 11:53:00,
2013-03-02 05:56:00,0.4,-2.8,30.37,NNW,342,0.0,0.0,86,0.00,,,0.00,Wunderground v.1.13,2013-03-02 11:56:00,
2013-03-02 05:58:00,0.3,-2.9,30.37,NNW,342,0.0,0.0,86,0.00,,,0.00,Wunderground v.1.13,2013-03-02 11:58:00,
2013-03-02 06:02:00,0.1,-3.1,30.37,NNW,342,0.0,0.0,86,0.00,,,0.00,Wunderground v.1.13,2013-03-02 12:02:00,
2013-03-02 06:04:00,0.0,-3.2,30.37,NNW,342,0.0,0.0,86,0.00,,,0.00,Wunderground v.1.13,2013-03-02 12:04:00,
2013-03-02 06:07:00,-0.3,-3.5,30.37,NNW,342,0.0,0.0,86,0.00,,,0.00,Wunderground v.1.13,2013-03-02 12:07:00,
2013-03-02 06:08:00,-0.3,-3.5,30.37,NNW,342,0.0,0.0,86,0.00,,,0.00,Wunderground v.1.13,2013-03-02 12:08:00,
2013-03-02 06:09:00,-0.4,-3.8,30.37,NNW,342,0.0,0.0,85,0.00,,,0.00,Wunderground v.1.13,2013-03-02 12:09:00,
2013-03-02 06:12:00,-0.6,-4.0,30.37,NNW,341,0.0,0.0,85,0.00,,,0.00,Wunderground v.1.13,2013-03-02 12:12:00,
2013-03-02 06:13:00,-0.6,-4.0,30.37,NNW,342,0.0,0.0,85,0.00,,,0.00,Wunderground v.1.13,2013-03-02 12:13:00,
2013-03-02 06:14:00,-0.7,-4.1,30.37,NNW,342,0.0,0.0,85,0.00,,,0.00,Wunderground v.1.13,2013-03-02 12:14:00,
2013-03-02 06:19:00,-0.8,-4.0,30.37,NNW,342,0.0,0.0,86,0.00,,,0.00,Wunderground v.1.13,2013-03-02 12:19:00,
2013-03-02 06:22:00,-0.8,-4.0,30.37,NNW,341,0.0,0.0,86,0.00,,,0.00,Wunderground v.1.13,2013-03-02 12:22:00,
2013-03-02 06:23:00,-0.7,-3.9,30.38,NNW,342,0.0,0.0,86,0.00,,,0.00,Wunderground v.1.13,2013-03-02 12:23:00,
2013-03-02 06:28:00,-0.6,-3.8,30.38,NNW,342,0.0,0.0,86,0.00,,,0.00,Wunderground v.1.13,2013-03-02 12:28:00,
2013-03-02 06:29:00,-0.6,-3.8,30.38,NNW,342,0.0,0.0,86,0.00,,,0.00,Wunderground v.1.13,2013-03-02 12:29:00,
2013-03-02 06:31:00,-0.6,-3.8,30.38,NNW,342,0.0,0.0,86,0.00,,,0.00,Wunderground v.1.13,2013-03-02 12:31:00,
2013-03-02 06:35:00,-0.4,-3.6,30.38,NNW,342,0.0,0.0,86,0.00,,,0.00,Wunderground v.1.13,2013-03-02 12:35:00,
2013-03-02 06:36:00,-0.4,-3.6,30.38,NNW,341,0.0,1.0,86,0.00,,,0.00,Wunderground v.1.13,2013-03-02 12:36:00,
2013-03-02 06:37:00,-0.4,-3.6,30.38,NNW,342,0.0,1.0,86,0.00,,,0.00,Wunderground v.1.13,2013-03-02 12:37:00,
2013-03-02 06:42:00,-0.3,-3.5,30.38,NNW,342,1.0,1.0,86,0.00,,,0.00,Wunderground v.1.13,2013-03-02 12:42:00,
2013-03-02 06:45:00,-0.3,-3.5,30.38,NNW,342,1.0,2.0,86,0.00,,,0.00,Wunderground v.1.13,2013-03-02 12:45:00,
2013-03-02 06:47:00,-0.2,-3.4,30.38,NNW,342,1.0,2.0,86,0.00,,,0.00,Wunderground v.1.13,2013-03-02 12:47:00,
2013-03-02 06:48:00,-0.1,-3.3,30.38,NNW,337,1.0,2.0,86,0.00,,,0.00,Wunderground v.1.13,2013-03-02 12:48:00,
2013-03-02 06:49:00,-0.1,-3.3,30.38,NNW,337,1.0,2.0,86,0.00,,,0.00,Wunderground v.1.13,2013-03-02 12:49:00,
2013-03-02 06:51:00,0.0,-3.2,30.38,NNW,337,2.0,2.0,86,0.00,,,0.00,Wunderground v.1.13,2013-03-02 12:51:00,
2013-03-02 06:55:00,0.1,-3.1,30.38,NNW,337,2.0,2.0,86,0.00,,,0.00,Wunderground v.1.13,2013-03-02 12:55:00,
2013-03-02 06:56:00,0.1,-3.1,30.38,NNW,337,1.0,2.0,86,0.00,,,0.00,Wunderground v.1.13,2013-03-02 12:56:00,
2013-03-02 06:59:00,0.0,-3.2,30.38,NNW,337,1.0,2.0,86,0.00,,,0.00,Wunderground v.1.13,2013-03-02 12:59:00,
2013-03-02 07:01:00,-0.1,-3.3,30.38,NNW,337,1.0,1.0,86,0.00,,,0.00,Wunderground v.1.13,2013-03-02 13:01:00,
2013-03-02 07:03:00,-0.1,-3.3,30.38,NNW,337,1.0,1.0,86,0.00,,,0.00,Wunderground v.1.13,2013-03-02 13:03:00,
2013-03-02 07:06:00,-0.1,-3.3,30.38,NNW,337,1.0,1.0,86,0.00,,,0.00,Wunderground v.1.13,2013-03-02 13:06:00,
2013-03-02 07:08:00,-0.1,-3.3,30.38,NNW,337,1.0,1.0,86,0.00,,,0.00,Wunderground v.1.13,2013-03-02 13:08:00,
2013-03-02 07:12:00,-0.1,-3.3,30.38,NNW,338,0.0,1.0,86,0.00,,,0.00,Wunderground v.1.13,2013-03-02 13:12:00,
2013-03-02 07:14:00,0.0,-3.2,30.38,NNW,337,0.0,1.0,86,0.00,,,0.00,Wunderground v.1.13,2013-03-02 13:14:00,
2013-03-02 07:16:00,0.0,-3.2,30.38,NNW,338,0.0,0.0,86,0.00,,,0.00,Wunderground v.1.13,2013-03-02 13:16:00,
2013-03-02 07:19:00,0.1,-3.1,30.38,NNW,338,0.0,0.0,86,0.00,,,0.00,Wunderground v.1.13,2013-03-02 13:19:00,
2013-03-02 07:21:00,0.3,-3.1,30.39,NNW,337,0.0,0.0,85,0.00,,,0.00,Wunderground v.1.13,2013-03-02 13:21:00,
2013-03-02 07:22:00,0.3,-3.1,30.38,NNW,337,0.0,0.0,85,0.00,,,0.00,Wunderground v.1.13,2013-03-02 13:22:00,
2013-03-02 07:26:00,0.4,-3.0,30.38,NNW,337,0.0,0.0,85,0.00,,,0.00,Wunderground v.1.13,2013-03-02 13:26:00,
2013-03-02 07:27:00,0.5,-2.9,30.38,NNW,338,0.0,0.0,85,0.00,,,0.00,Wunderground v.1.13,2013-03-02 13:27:00,
2013-03-02 07:30:00,0.6,-2.8,30.38,NNW,337,0.0,0.0,85,0.00,,,0.00,Wunderground v.1.13,2013-03-02 13:30:00,
2013-03-02 07:33:00,0.7,-2.5,30.38,NNW,338,0.0,0.0,86,0.00,,,0.00,Wunderground v.1.13,2013-03-02 13:33:00,
2013-03-02 07:34:00,0.8,-2.4,30.38,NNW,338,0.0,0.0,86,0.00,,,0.00,Wunderground v.1.13,2013-03-02 13:34:00,
2013-03-02 07:37:00,1.0,-2.5,30.38,NNW,338,0.0,0.0,85,0.00,,,0.00,Wunderground v.1.13,2013-03-02 13:37:00,
2013-03-02 07:38:00,1.1,-2.4,30.38,NNW,338,0.0,0.0,85,0.00,,,0.00,Wunderground v.1.13,2013-03-02 13:38:00,
2013-03-02 07:40:00,1.3,-2.2,30.38,NNW,337,0.0,0.0,85,0.00,,,0.00,Wunderground v.1.13,2013-03-02 13:40:00,
2013-03-02 07:41:00,1.4,-2.1,30.38,NNW,338,0.0,0.0,85,0.00,,,0.00,Wunderground v.1.13,2013-03-02 13:41:00,
2013-03-02 07:43:00,1.7,-1.8,30.38,NNW,338,0.0,0.0,85,0.00,,,0.00,Wunderground v.1.13,2013-03-02 13:43:00,
2013-03-02 07:46:00,2.3,-0.9,30.38,NNW,338,0.0,0.0,86,0.00,,,0.00,Wunderground v.1.13,2013-03-02 13:46:00,
2013-03-02 07:50:00,2.9,-0.3,30.37,NNW,338,0.0,0.0,86,0.00,,,0.00,Wunderground v.1.13,2013-03-02 13:50:00,
2013-03-02 07:52:00,3.1,-0.4,30.37,NNW,338,0.0,0.0,85,0.00,,,0.00,Wunderground v.1.13,2013-03-02 13:52:00,
2013-03-02 07:53:00,3.2,-0.3,30.37,NNW,337,0.0,0.0,85,0.00,,,0.00,Wunderground v.1.13,2013-03-02 13:53:00,
2013-03-02 07:56:00,3.3,-0.2,30.37,NNW,338,0.0,0.0,85,0.00,,,0.00,Wunderground v.1.13,2013-03-02 13:56:00,
2013-03-02 07:58:00,3.5,0.0,30.37,NNW,338,0.0,0.0,85,0.00,,,0.00,Wunderground v.1.13,2013-03-02 13:58:00,
2013-03-02 07:59:00,3.5,-0.2,30.37,NNW,338,0.0,0.0,84,0.00,,,0.00,Wunderground v.1.13,2013-03-02 13:59:00,
2013-03-02 08:04:00,3.9,0.1,30.38,NNW,338,0.0,0.0,84,0.00,,,0.00,Wunderground v.1.13,2013-03-02 14:04:00,
2013-03-02 08:05:00,4.0,0.2,30.38,NNW,338,0.0,0.0,84,0.00,,,0.00,Wunderground v.1.13,2013-03-02 14:05:00,
2013-03-02 08:06:00,4.1,0.3,30.38,NNW,338,0.0,0.0,84,0.00,,,0.00,Wunderground v.1.13,2013-03-02 14:06:00,
2013-03-02 08:08:00,4.2,0.4,30.38,NNW,338,0.0,0.0,84,0.00,,,0.00,Wunderground v.1.13,2013-03-02 14:08:00,
2013-03-02 08:11:00,4.6,0.8,30.37,NNW,338,0.0,0.0,84,0.00,,,0.00,Wunderground v.1.13,2013-03-02 14:11:00,
2013-03-02 08:12:00,4.7,0.9,30.37,NNW,338,0.0,0.0,84,0.00,,,0.00,Wunderground v.1.13,2013-03-02 14:12:00,
2013-03-02 08:15:00,5.1,1.3,30.37,NNW,338,0.0,0.0,84,0.00,,,0.00,Wunderground v.1.13,2013-03-02 14:15:00,
2013-03-02 08:16:00,5.3,1.5,30.37,NNW,338,0.0,0.0,84,0.00,,,0.00,Wunderground v.1.13,2013-03-02 14:16:00,
2013-03-02 08:17:00,5.6,2.1,30.37,NNW,338,0.0,0.0,85,0.00,,,0.00,Wunderground v.1.13,2013-03-02 14:17:00,
2013-03-02 08:18:00,5.9,2.4,30.37,NNW,337,0.0,0.0,85,0.00,,,0.00,Wunderground v.1.13,2013-03-02 14:18:00,
2013-03-02 08:22:00,7.5,3.9,30.37,NNW,337,0.0,0.0,85,0.00,,,0.00,Wunderground v.1.13,2013-03-02 14:22:00,
2013-03-02 08:24:00,7.9,4.3,30.37,NNW,338,0.0,0.0,85,0.00,,,0.00,Wunderground v.1.13,2013-03-02 14:24:00,
2013-03-02 08:25:00,8.1,4.3,30.37,NNW,338,0.0,0.0,84,0.00,,,0.00,Wunderground v.1.13,2013-03-02 14:25:00,
2013-03-02 08:28:00,8.5,4.4,30.37,NNW,338,0.0,0.0,83,0.00,,,0.00,Wunderground v.1.13,2013-03-02 14:28:00,
2013-03-02 08:29:00,8.7,4.6,30.36,NNW,338,0.0,0.0,83,0.00,,,0.00,Wunderground v.1.13,2013-03-02 14:29:00,
2013-03-02 08:31:00,8.8,4.7,30.37,NNW,338,0.0,0.0,83,0.00,,,0.00,Wunderground v.1.13,2013-03-02 14:31:00,
2013-03-02 08:33:00,9.0,4.6,30.37,NNW,338,0.0,0.0,82,0.00,,,0.00,Wunderground v.1.13,2013-03-02 14:33:00,
2013-03-02 08:37:00,9.7,5.6,30.36,NNW,337,0.0,0.0,83,0.00,,,0.00,Wunderground v.1.13,2013-03-02 14:37:00,
2013-03-02 08:38:00,9.9,5.5,30.37,NNW,338,0.0,0.0,82,0.00,,,0.00,Wunderground v.1.13,2013-03-02 14:38:00,
2013-03-02 08:39:00,10.0,5.6,30.36,NNW,338,0.0,1.0,82,0.00,,,0.00,Wunderground v.1.13,2013-03-02 14:39:00,
2013-03-02 08:43:00,10.2,5.8,30.36,NNW,338,0.0,2.0,82,0.00,,,0.00,Wunderground v.1.13,2013-03-02 14:43:00,
2013-03-02 08:45:00,10.3,5.9,30.36,NNW,337,1.0,2.0,82,0.00,,,0.00,Wunderground v.1.13,2013-03-02 14:45:00,
2013-03-02 08:47:00,10.5,6.1,30.36,NNW,338,1.0,2.0,82,0.00,,,0.00,Wunderground v.1.13,2013-03-02 14:47:00,
2013-03-02 08:48:00,10.5,6.1,30.36,NNW,338,1.0,2.0,82,0.00,,,0.00,Wunderground v.1.13,2013-03-02 14:48:00,
2013-03-02 08:49:00,10.6,6.2,30.36,NNW,338,1.0,2.0,82,0.00,,,0.00,Wunderground v.1.13,2013-03-02 14:49:00,
2013-03-02 08:53:00,11.0,6.6,30.36,NNW,338,2.0,2.0,82,0.00,,,0.00,Wunderground v.1.13,2013-03-02 14:53:00,
2013-03-02 08:54:00,11.1,6.7,30.36,NNW,338,2.0,2.0,82,0.00,,,0.00,Wunderground v.1.13,2013-03-02 14:54:00,
2013-03-02 08:55:00,11.2,6.8,30.36,NNW,338,2.0,2.0,82,0.00,,,0.00,Wunderground v.1.13,2013-03-02 14:55:00,
2013-03-02 09:00:00,11.7,7.3,30.36,NNW,338,2.0,2.0,82,0.00,,,0.00,Wunderground v.1.13,2013-03-02 15:00:00,
2013-03-02 09:01:00,11.9,7.5,30.36,NNW,337,2.0,2.0,82,0.00,,,0.00,Wunderground v.1.13,2013-03-02 15:01:00,
2013-03-02 09:06:00,12.3,7.9,30.36,NNW,338,2.0,2.0,82,0.00,,,0.00,Wunderground v.1.13,2013-03-02 15:06:00,
2013-03-02 09:07:00,12.3,7.9,30.36,NNW,338,2.0,2.0,82,0.00,,,0.00,Wunderground v.1.13,2013-03-02 15:07:00,
2013-03-02 09:12:00,12.6,7.9,30.35,ENE,63,2.0,4.0,81,0.00,,,0.00,Wunderground v.1.13,2013-03-02 15:12:00,
2013-03-02 09:13:00,12.6,7.9,30.35,ENE,63,2.0,4.0,81,0.00,,,0.00,Wunderground v.1.13,2013-03-02 15:13:00,
2013-03-02 09:16:00,12.8,8.3,30.35,ENE,63,3.0,3.0,82,0.00,,,0.00,Wunderground v.1.13,2013-03-02 15:16:00,
2013-03-02 09:17:00,12.9,8.4,30.35,ENE,63,3.0,3.0,82,0.00,,,0.00,Wunderground v.1.13,2013-03-02 15:17:00,
2013-03-02 09:20:00,13.3,8.8,30.35,ENE,63,2.0,2.0,82,0.00,,,0.00,Wunderground v.1.13,2013-03-02 15:20:00,
2013-03-02 09:23:00,13.8,9.3,30.35,ENE,63,2.0,2.0,82,0.00,,,0.00,Wunderground v.1.13,2013-03-02 15:23:00,
2013-03-02 09:26:00,14.1,9.3,30.35,ENE,63,2.0,2.0,81,0.00,,,0.00,Wunderground v.1.13,2013-03-02 15:26:00,
2013-03-02 09:28:00,14.2,9.4,30.35,ENE,63,2.0,2.0,81,0.00,,,0.00,Wunderground v.1.13,2013-03-02 15:28:00,
2013-03-02 09:31:00,14.6,9.8,30.34,ENE,63,2.0,4.0,81,0.00,,,0.00,Wunderground v.1.13,2013-03-02 15:31:00,
2013-03-02 09:34:00,14.6,9.6,30.34,ENE,63,2.0,4.0,80,0.00,,,0.00,Wunderground v.1.13,2013-03-02 15:34:00,
2013-03-02 09:35:00,14.6,9.6,30.34,ENE,63,2.0,4.0,80,0.00,,,0.00,Wunderground v.1.13,2013-03-02 15:35:00,
2013-03-02 09:38:00,14.7,9.6,30.34,ENE,65,2.0,4.0,80,0.00,,,0.00,Wunderground v.1.13,2013-03-02 15:38:00,
2013-03-02 09:41:00,14.7,9.6,30.34,ENE,71,3.0,3.0,80,0.00,,,0.00,Wunderground v.1.13,2013-03-02 15:41:00,
2013-03-02 09:42:00,14.8,9.7,30.34,ENE,71,3.0,3.0,80,0.00,,,0.00,Wunderground v.1.13,2013-03-02 15:42:00,
2013-03-02 09:47:00,15.5,10.4,30.34,ENE,71,2.0,3.0,80,0.00,,,0.00,Wunderground v.1.13,2013-03-02 15:47:00,
2013-03-02 09:48:00,15.6,10.5,30.34,ENE,71,2.0,3.0,80,0.00,,,0.00,Wunderground v.1.13,2013-03-02 15:48:00,
2013-03-02 09:51:00,15.7,10.3,30.34,ENE,71,3.0,3.0,79,0.00,,,0.00,Wunderground v.1.13,2013-03-02 15:51:00,
2013-03-02 09:52:00,15.7,10.3,30.34,ENE,71,2.0,3.0,79,0.00,,,0.00,Wunderground v.1.13,2013-03-02 15:52:00,
2013-03-02 09:55:00,15.9,10.5,30.34,ENE,71,3.0,3.0,79,0.00,,,0.00,Wunderground v.1.13,2013-03-02 15:55:00,
2013-03-02 09:58:00,16.4,11.0,30.34,ENE,71,2.0,3.0,79,0.00,,,0.00,Wunderground v.1.13,2013-03-02 15:58:00,
2013-03-02 10:01:00,16.9,11.2,30.34,ENE,71,2.0,2.0,78,0.00,,,0.00,Wunderground v.1.13,2013-03-02 16:01:00,
2013-03-02 10:04:00,17.4,11.7,30.34,ENE,71,2.0,2.0,78,0.00,,,0.00,Wunderground v.1.13,2013-03-02 16:04:00,
2013-03-02 10:07:00,17.5,11.2,30.34,ENE,71,2.0,2.0,76,0.00,,,0.00,Wunderground v.1.13,2013-03-02 16:07:00,
2013-03-02 10:11:00,17.8,11.8,30.34,ENE,71,2.0,2.0,77,0.00,,,0.00,Wunderground v.1.13,2013-03-02 16:11:00,
2013-03-02 10:14:00,18.3,12.0,30.34,ENE,71,2.0,2.0,76,0.00,,,0.00,Wunderground v.1.13,2013-03-02 16:14:00,
2013-03-02 10:16:00,18.5,11.9,30.33,ENE,71,2.0,2.0,75,0.00,,,0.00,Wunderground v.1.13,2013-03-02 16:16:00,
2013-03-02 10:22:00,19.1,12.2,30.33,ENE,71,2.0,2.0,74,0.00,,,0.00,Wunderground v.1.13,2013-03-02 16:22:00,
2013-03-02 10:27:00,19.4,12.2,30.33,ENE,71,2.0,3.0,73,0.00,,,0.00,Wunderground v.1.13,2013-03-02 16:27:00,
2013-03-02 10:28:00,19.5,12.3,30.33,ENE,71,2.0,3.0,73,0.00,,,0.00,Wunderground v.1.13,2013-03-02 16:28:00,
2013-03-02 10:31:00,19.6,12.0,30.32,ENE,71,2.0,2.0,72,0.00,,,0.00,Wunderground v.1.13,2013-03-02 16:31:00,
2013-03-02 10:37:00,19.2,11.6,30.32,ENE,61,4.0,6.0,72,0.00,,,0.00,Wunderground v.1.13,2013-03-02 16:37:00,
2013-03-02 10:40:00,19.4,11.8,30.32,NE,56,4.0,6.0,72,0.00,,,0.00,Wunderground v.1.13,2013-03-02 16:40:00,
2013-03-02 10:43:00,19.7,11.8,30.32,ENE,58,5.0,6.0,71,0.00,,,0.00,Wunderground v.1.13,2013-03-02 16:43:00,
2013-03-02 10:44:00,19.8,11.6,30.32,NE,54,5.0,6.0,70,0.00,,,0.00,Wunderground v.1.13,2013-03-02 16:44:00,
2013-03-02 10:46:00,19.9,11.7,30.32,ENE,60,4.0,5.0,70,0.00,,,0.00,Wunderground v.1.13,2013-03-02 16:46:00,
2013-03-02 10:49:00,20.4,12.5,30.32,NE,49,4.0,5.0,71,0.00,,,0.00,Wunderground v.1.13,2013-03-02 16:49:00,
2013-03-02 10:51:00,20.6,12.0,30.32,ESE,105,4.0,4.0,69,0.00,,,0.00,Wunderground v.1.13,2013-03-02 16:51:00,
2013-03-02 10:57:00,21.3,12.0,30.31,ESE,113,5.0,8.0,67,0.00,,,0.00,Wunderground v.1.13,2013-03-02 16:57:00,
2013-03-02 10:59:00,21.4,11.8,30.31,ESE,109,6.0,8.0,66,0.00,,,0.00,Wunderground v.1.13,2013-03-02 16:59:00,
2013-03-02 11:04:00,21.8,12.5,30.31,ESE,111,5.0,7.0,67,0.00,,,0.00,Wunderground v.1.13,2013-03-02 17:04:00,
2013-03-02 11:08:00,21.7,11.7,30.31,ESE,116,5.0,6.0,65,0.00,,,0.00,Wunderground v.1.13,2013-03-02 17:08:00,
2013-03-02 11:10:00,21.9,12.6,30.31,East,90,4.0,5.0,67,0.00,,,0.00,Wunderground v.1.13,2013-03-02 17:10:00,
2013-03-02 11:13:00,21.8,11.8,30.31,ESE,122,5.0,8.0,65,0.00,,,0.00,Wunderground v.1.13,2013-03-02 17:13:00,
2013-03-02 11:17:00,21.8,12.2,30.31,ESE,114,5.0,7.0,66,0.00,,,0.00,Wunderground v.1.13,2013-03-02 17:17:00,
2013-03-02 11:19:00,21.9,12.3,30.31,East,100,5.0,7.0,66,0.00,,,0.00,Wunderground v.1.13,2013-03-02 17:19:00,
2013-03-02 11:23:00,21.5,11.5,30.32,ESE,111,5.0,7.0,65,0.00,,,0.00,Wunderground v.1.13,2013-03-02 17:23:00,
2013-03-02 11:25:00,21.3,11.4,30.31,ESE,112,5.0,5.0,65,0.00,,,0.00,Wunderground v.1.13,2013-03-02 17:25:00,
2013-03-02 11:29:00,21.5,11.5,30.31,ESE,115,5.0,6.0,65,0.00,,,0.00,Wunderground v.1.13,2013-03-02 17:29:00,
2013-03-02 11:31:00,21.7,12.1,30.31,ESE,115,5.0,6.0,66,0.00,,,0.00,Wunderground v.1.13,2013-03-02 17:31:00,
2013-03-02 11:33:00,22.1,12.8,30.31,ESE,115,5.0,6.0,67,0.00,,,0.00,Wunderground v.1.13,2013-03-02 17:33:00,
2013-03-02 11:37:00,22.1,11.8,30.31,ESE,115,5.0,6.0,64,0.00,,,0.00,Wunderground v.1.13,2013-03-02 17:37:00,
2013-03-02 11:39:00,22.0,11.7,30.31,ESE,117,5.0,8.0,64,0.00,,,0.00,Wunderground v.1.13,2013-03-02 17:39:00,
2013-03-02 11:43:00,22.4,12.4,30.31,ESE,117,4.0,7.0,65,0.00,,,0.00,Wunderground v.1.13,2013-03-02 17:43:00,
2013-03-02 11:45:00,22.5,12.1,30.31,ESE,118,4.0,8.0,64,0.00,,,0.00,Wunderground v.1.13,2013-03-02 17:45:00,
2013-03-02 11:49:00,22.6,11.9,30.31,ESE,118,4.0,8.0,63,0.00,,,0.00,Wunderground v.1.13,2013-03-02 17:49:00,
2013-03-02 11:52:00,23.1,12.7,30.31,ESE,123,5.0,6.0,64,0.00,,,0.00,Wunderground v.1.13,2013-03-02 17:52:00,
2013-03-02 11:53:00,23.3,12.6,30.31,ESE,122,5.0,7.0,63,0.00,,,0.00,Wunderground v.1.13,2013-03-02 17:53:00,
2013-03-02 11:56:00,22.7,11.6,30.31,SE,124,5.0,6.0,62,0.00,,,0.00,Wunderground v.1.13,2013-03-02 17:56:00,
2013-03-02 11:59:00,22.9,12.2,30.31,SE,124,5.0,6.0,63,0.00,,,0.00,Wunderground v.1.13,2013-03-02 17:59:00,
2013-03-02 12:03:00,23.9,13.5,30.31,ESE,123,4.0,5.0,64,0.00,,,0.00,Wunderground v.1.13,2013-03-02 18:03:00,
2013-03-02 12:06:00,24.1,12.6,30.31,ESE,123,3.0,4.0,61,0.00,,,0.00,Wunderground v.1.13,2013-03-02 18:06:00,
2013-03-02 12:07:00,24.2,12.3,30.31,SE,124,3.0,4.0,60,0.00,,,0.00,Wunderground v.1.13,2013-03-02 18:07:00,
2013-03-02 12:09:00,24.6,13.1,30.31,SE,124,2.0,4.0,61,0.00,,,0.00,Wunderground v.1.13,2013-03-02 18:09:00,
2013-03-02 12:12:00,24.7,12.4,30.30,SE,124,2.0,5.0,59,0.00,,,0.00,Wunderground v.1.13,2013-03-02 18:12:00,
2013-03-02 12:14:00,24.7,12.4,30.30,ESE,123,2.0,5.0,59,0.00,,,0.00,Wunderground v.1.13,2013-03-02 18:14:00,
2013-03-02 12:18:00,24.9,12.6,30.30,SE,124,2.0,4.0,59,0.00,,,0.00,Wunderground v.1.13,2013-03-02 18:18:00,
2013-03-02 12:20:00,24.6,12.3,30.30,ESE,123,2.0,5.0,59,0.00,,,0.00,Wunderground v.1.13,2013-03-02 18:20:00,
2013-03-02 12:21:00,24.3,12.0,30.30,SE,129,3.0,5.0,59,0.00,,,0.00,Wunderground v.1.13,2013-03-02 18:21:00,
2013-03-02 12:27:00,24.7,12.8,30.30,East,79,4.0,4.0,60,0.00,,,0.00,Wunderground v.1.13,2013-03-02 18:27:00,
2013-03-02 12:29:00,24.5,12.2,30.30,East,86,4.0,4.0,59,0.00,,,0.00,Wunderground v.1.13,2013-03-02 18:29:00,
2013-03-02 12:30:00,24.5,11.8,30.29,East,86,3.0,3.0,58,0.00,,,0.00,Wunderground v.1.13,2013-03-02 18:30:00,
2013-03-02 12:33:00,24.8,12.5,30.29,East,86,3.0,4.0,59,0.00,,,0.00,Wunderground v.1.13,2013-03-02 18:33:00,
2013-03-02 12:36:00,24.5,11.8,30.30,East,86,2.0,2.0,58,0.00,,,0.00,Wunderground v.1.13,2013-03-02 18:36:00,
2013-03-02 12:39:00,24.5,12.2,30.29,East,94,3.0,5.0,59,0.00,,,0.00,Wunderground v.1.13,2013-03-02 18:39:00,
2013-03-02 12:42:00,24.7,12.4,30.29,East,94,3.0,4.0,59,0.00,,,0.00,Wunderground v.1.13,2013-03-02 18:42:00,
2013-03-02 12:45:00,25.0,12.7,30.29,ENE,75,3.0,4.0,59,0.00,,,0.00,Wunderground v.1.13,2013-03-02 18:45:00,
2013-03-02 12:47:00,25.2,12.5,30.29,NE,45,3.0,4.0,58,0.00,,,0.00,Wunderground v.1.13,2013-03-02 18:47:00,
2013-03-02 12:49:00,25.4,12.7,30.29,ENE,61,2.0,4.0,58,0.00,,,0.00,Wunderground v.1.13,2013-03-02 18:49:00,
2013-03-02 12:51:00,25.1,12.0,30.29,ENE,75,3.0,5.0,57,0.00,,,0.00,Wunderground v.1.13,2013-03-02 18:51:00,
2013-03-02 12:57:00,25.1,11.6,30.28,ENE,75,3.0,3.0,56,0.00,,,0.00,Wunderground v.1.13,2013-03-02 18:57:00,
2013-03-02 12:59:00,25.3,11.8,30.28,ENE,75,2.0,3.0,56,0.00,,,0.00,Wunderground v.1.13,2013-03-02 18:59:00,
2013-03-02 13:03:00,25.6,11.7,30.28,ENE,75,1.0,3.0,55,0.00,,,0.00,Wunderground v.1.13,2013-03-02 19:03:00,
2013-03-02 13:06:00,25.5,11.6,30.28,ENE,75,2.0,2.0,55,0.00,,,0.00,Wunderground v.1.13,2013-03-02 19:06:00,
2013-03-02 13:07:00,25.5,11.6,30.28,ENE,75,2.0,2.0,55,0.00,,,0.00,Wunderground v.1.13,2013-03-02 19:07:00,
2013-03-02 13:09:00,25.5,11.6,30.28,ENE,75,2.0,2.0,55,0.00,,,0.00,Wunderground v.1.13,2013-03-02 19:09:00,
2013-03-02 13:11:00,25.6,12.1,30.27,NE,46,2.0,5.0,56,0.00,,,0.00,Wunderground v.1.13,2013-03-02 19:11:00,
2013-03-02 13:14:00,25.5,11.6,30.27,NE,34,2.0,5.0,55,0.00,,,0.00,Wunderground v.1.13,2013-03-02 19:14:00,
2013-03-02 13:20:00,25.8,11.4,30.27,NNE,26,2.0,2.0,54,0.00,,,0.00,Wunderground v.1.13,2013-03-02 19:20:00,
2013-03-02 13:21:00,25.9,11.5,30.28,NNE,26,2.0,2.0,54,0.00,,,0.00,Wunderground v.1.13,2013-03-02 19:21:00,
2013-03-02 13:27:00,26.2,11.8,30.27,NNE,26,2.0,3.0,54,0.00,,,0.00,Wunderground v.1.13,2013-03-02 19:27:00,
2013-03-02 13:28:00,26.2,11.4,30.27,NNE,26,2.0,3.0,53,0.00,,,0.00,Wunderground v.1.13,2013-03-02 19:28:00,
2013-03-02 13:31:00,26.3,11.9,30.27,NNE,26,2.0,2.0,54,0.00,,,0.00,Wunderground v.1.13,2013-03-02 19:31:00,
2013-03-02 13:33:00,26.2,11.8,30.27,NNE,26,2.0,2.0,54,0.00,,,0.00,Wunderground v.1.13,2013-03-02 19:33:00,
2013-03-02 13:34:00,26.2,11.8,30.27,NNE,26,2.0,4.0,54,0.00,,,0.00,Wunderground v.1.13,2013-03-02 19:34:00,
2013-03-02 13:36:00,26.3,11.9,30.27,NNE,26,2.0,2.0,54,0.00,,,0.00,Wunderground v.1.13,2013-03-02 19:36:00,
2013-03-02 13:40:00,26.4,11.6,30.27,NNE,26,2.0,2.0,53,0.00,,,0.00,Wunderground v.1.13,2013-03-02 19:40:00,
2013-03-02 13:42:00,26.5,11.7,30.27,NNE,25,2.0,5.0,53,0.00,,,0.00,Wunderground v.1.13,2013-03-02 19:42:00,
2013-03-02 13:46:00,26.6,11.7,30.27,NNE,26,2.0,3.0,53,0.00,,,0.00,Wunderground v.1.13,2013-03-02 19:46:00,
2013-03-02 13:52:00,26.5,11.2,30.27,NE,50,3.0,4.0,52,0.00,,,0.00,Wunderground v.1.13,2013-03-02 19:52:00,
2013-03-02 13:55:00,26.5,10.8,30.26,NE,50,2.0,2.0,51,0.00,,,0.00,Wunderground v.1.13,2013-03-02 19:55:00,
2013-03-02 13:58:00,26.5,10.8,30.26,NE,50,2.0,2.0,51,0.00,,,0.00,Wunderground v.1.13,2013-03-02 19:58:00,
2013-03-02 14:01:00,26.5,11.2,30.26,NE,51,2.0,2.0,52,0.00,,,0.00,Wunderground v.1.13,2013-03-02 20:01:00,
2013-03-02 14:04:00,26.3,11.0,30.26,NE,51,2.0,2.0,52,0.00,,,0.00,Wunderground v.1.13,2013-03-02 20:04:00,
2013-03-02 14:07:00,26.5,11.7,30.26,NE,51,2.0,2.0,53,0.00,,,0.00,Wunderground v.1.13,2013-03-02 20:07:00,
2013-03-02 14:11:00,26.7,11.4,30.26,NE,51,2.0,2.0,52,0.00,,,0.00,Wunderground v.1.13,2013-03-02 20:11:00,
2013-03-02 14:13:00,26.8,11.5,30.25,NE,51,2.0,2.0,52,0.00,,,0.00,Wunderground v.1.13,2013-03-02 20:13:00,
2013-03-02 14:17:00,26.7,11.4,30.25,ENE,69,2.0,5.0,52,0.00,,,0.00,Wunderground v.1.13,2013-03-02 20:17:00,
2013-03-02 14:19:00,26.9,12.0,30.25,ENE,69,2.0,5.0,53,0.00,,,0.00,Wunderground v.1.13,2013-03-02 20:19:00,
2013-03-02 14:23:00,26.9,11.2,30.25,ENE,68,3.0,4.0,51,0.00,,,0.00,Wunderground v.1.13,2013-03-02 20:23:00,
2013-03-02 14:26:00,26.9,11.6,30.25,ENE,69,2.0,4.0,52,0.00,,,0.00,Wunderground v.1.13,2013-03-02 20:26:00,
2013-03-02 14:29:00,27.0,12.5,30.25,ENE,69,2.0,4.0,54,0.00,,,0.00,Wunderground v.1.13,2013-03-02 20:29:00,
2013-03-02 14:31:00,27.1,11.8,30.25,ENE,69,2.0,2.0,52,0.00,,,0.00,Wunderground v.1.13,2013-03-02 20:31:00,
2013-03-02 14:35:00,27.3,11.5,30.25,ENE,69,1.0,1.0,51,0.00,,,0.00,Wunderground v.1.13,2013-03-02 20:35:00,
2013-03-02 14:36:00,27.3,11.1,30.25,ENE,68,1.0,1.0,50,0.00,,,0.00,Wunderground v.1.13,2013-03-02 20:36:00,
2013-03-02 14:42:00,27.7,12.3,30.25,ENE,68,0.0,1.0,52,0.00,,,0.00,Wunderground v.1.13,2013-03-02 20:42:00,
2013-03-02 14:44:00,27.8,11.5,30.25,ENE,69,0.0,2.0,50,0.00,,,0.00,Wunderground v.1.13,2013-03-02 20:44:00,
2013-03-02 14:45:00,27.9,11.6,30.25,ENE,68,0.0,2.0,50,0.00,,,0.00,Wunderground v.1.13,2013-03-02 20:45:00,
2013-03-02 14:46:00,27.8,11.5,30.25,ENE,68,1.0,2.0,50,0.00,,,0.00,Wunderground v.1.13,2013-03-02 20:46:00,
2013-03-02 14:51:00,28.1,11.8,30.25,ENE,74,1.0,5.0,50,0.00,,,0.00,Wunderground v.1.13,2013-03-02 20:51:00,
2013-03-02 14:52:00,28.0,11.3,30.25,ENE,74,2.0,5.0,49,0.00,,,0.00,Wunderground v.1.13,2013-03-02 20:52:00,
2013-03-02 14:53:00,27.9,11.2,30.25,ENE,74,2.0,5.0,49,0.00,,,0.00,Wunderground v.1.13,2013-03-02 20:53:00,
2013-03-02 14:54:00,27.8,11.5,30.25,ENE,74,2.0,5.0,50,0.00,,,0.00,Wunderground v.1.13,2013-03-02 20:54:00,
2013-03-02 14:57:00,27.6,10.9,30.24,ENE,74,2.0,2.0,49,0.00,,,0.00,Wunderground v.1.13,2013-03-02 20:57:00,
2013-03-02 15:02:00,27.7,11.9,30.25,ENE,74,2.0,2.0,51,0.00,,,0.00,Wunderground v.1.13,2013-03-02 21:02:00,
2013-03-02 15:06:00,28.0,11.7,30.24,ENE,74,1.0,1.0,50,0.00,,,0.00,Wunderground v.1.13,2013-03-02 21:06:00,
2013-03-02 15:08:00,28.1,11.4,30.24,ENE,74,1.0,1.0,49,0.00,,,0.00,Wunderground v.1.13,2013-03-02 21:08:00,
2013-03-02 15:13:00,28.0,11.3,30.24,ENE,74,1.0,1.0,49,0.00,,,0.00,Wunderground v.1.13,2013-03-02 21:13:00,
2013-03-02 15:14:00,28.0,11.3,30.24,ENE,74,1.0,2.0,49,0.00,,,0.00,Wunderground v.1.13,2013-03-02 21:14:00,
2013-03-02 15:19:00,27.7,10.5,30.24,ENE,74,2.0,2.0,48,0.00,,,0.00,Wunderground v.1.13,2013-03-02 21:19:00,
2013-03-02 15:21:00,27.6,10.9,30.24,ENE,74,2.0,2.0,49,0.00,,,0.00,Wunderground v.1.13,2013-03-02 21:21:00,
2013-03-02 15:26:00,27.4,11.2,30.24,ENE,74,2.0,2.0,50,0.00,,,0.00,Wunderground v.1.13,2013-03-02 21:26:00,
2013-03-02 15:29:00,27.5,11.3,30.24,ENE,74,1.0,2.0,50,0.00,,,0.00,Wunderground v.1.13,2013-03-02 21:29:00,
2013-03-02 15:31:00,27.5,11.3,30.24,ENE,74,1.0,2.0,50,0.00,,,0.00,Wunderground v.1.13,2013-03-02 21:31:00,
2013-03-02 15:32:00,27.5,11.3,30.24,ENE,74,1.0,2.0,50,0.00,,,0.00,Wunderground v.1.13,2013-03-02 21:32:00,
2013-03-02 15:34:00,27.5,10.8,30.24,ENE,74,1.0,2.0,49,0.00,,,0.00,Wunderground v.1.13,2013-03-02 21:34:00,
2013-03-02 15:40:00,27.6,10.9,30.24,ENE,74,1.0,1.0,49,0.00,,,0.00,Wunderground v.1.13,2013-03-02 21:40:00,
2013-03-02 15:43:00,27.9,11.2,30.23,ENE,74,1.0,1.0,49,0.00,,,0.00,Wunderground v.1.13,2013-03-02 21:43:00,
2013-03-02 15:45:00,28.1,11.4,30.24,ENE,74,1.0,1.0,49,0.00,,,0.00,Wunderground v.1.13,2013-03-02 21:45:00,
2013-03-02 15:49:00,28.5,11.3,30.24,ENE,74,0.0,1.0,48,0.00,,,0.00,Wunderground v.1.13,2013-03-02 21:49:00,
2013-03-02 15:51:00,28.7,11.5,30.23,ENE,74,0.0,1.0,48,0.00,,,0.00,Wunderground v.1.13,2013-03-02 21:51:00,
2013-03-02 15:55:00,28.7,10.5,30.23,ENE,74,0.0,2.0,46,0.00,,,0.00,Wunderground v.1.13,2013-03-02 21:55:00,
2013-03-02 15:57:00,28.6,11.4,30.23,ENE,74,1.0,2.0,48,0.00,,,0.00,Wunderground v.1.13,2013-03-02 21:57:00,
2013-03-02 16:01:00,28.6,11.4,30.23,ENE,74,1.0,1.0,48,0.00,,,0.00,Wunderground v.1.13,2013-03-02 22:01:00,
2013-03-02 16:04:00,28.7,11.5,30.24,ENE,74,1.0,1.0,48,0.00,,,0.00,Wunderground v.1.13,2013-03-02 22:04:00,
2013-03-02 16:06:00,28.8,10.6,30.24,ENE,74,1.0,1.0,46,0.00,,,0.00,Wunderground v.1.13,2013-03-02 22:06:00,
2013-03-02 16:12:00,28.2,11.0,30.24,NE,53,2.0,4.0,48,0.00,,,0.00,Wunderground v.1.13,2013-03-02 22:12:00,
2013-03-02 16:14:00,27.9,10.2,30.24,NE,53,3.0,4.0,47,0.00,,,0.00,Wunderground v.1.13,2013-03-02 22:14:00,
2013-03-02 16:18:00,27.7,10.1,30.24,NE,53,4.0,4.0,47,0.00,,,0.00,Wunderground v.1.13,2013-03-02 22:18:00,
2013-03-02 16:20:00,27.7,10.1,30.24,NE,52,3.0,3.0,47,0.00,,,0.00,Wunderground v.1.13,2013-03-02 22:20:00,
2013-03-02 16:21:00,27.8,10.2,30.23,NE,52,3.0,3.0,47,0.00,,,0.00,Wunderground v.1.13,2013-03-02 22:21:00,
2013-03-02 16:24:00,27.8,9.7,30.23,ENE,63,2.0,5.0,46,0.00,,,0.00,Wunderground v.1.13,2013-03-02 22:24:00,
2013-03-02 16:26:00,27.8,10.2,30.23,ENE,63,1.0,2.0,47,0.00,,,0.00,Wunderground v.1.13,2013-03-02 22:26:00,
2013-03-02 16:28:00,27.8,9.7,30.24,ENE,63,1.0,2.0,46,0.00,,,0.00,Wunderground v.1.13,2013-03-02 22:28:00,
2013-03-02 16:29:00,27.8,9.7,30.24,ENE,63,1.0,2.0,46,0.00,,,0.00,Wunderground v.1.13,2013-03-02 22:29:00,
2013-03-02 16:33:00,27.7,10.1,30.24,ENE,63,1.0,2.0,47,0.00,,,0.00,Wunderground v.1.13,2013-03-02 22:33:00,
2013-03-02 16:35:00,27.6,10.0,30.24,ENE,63,1.0,1.0,47,0.00,,,0.00,Wunderground v.1.13,2013-03-02 22:35:00,
2013-03-02 16:40:00,27.5,8.9,30.23,NNE,33,1.0,4.0,45,0.00,,,0.00,Wunderground v.1.13,2013-03-02 22:40:00,
2013-03-02 16:41:00,27.4,8.8,30.24,NE,34,1.0,4.0,45,0.00,,,0.00,Wunderground v.1.13,2013-03-02 22:41:00,
2013-03-02 16:42:00,27.4,8.8,30.24,NE,34,1.0,4.0,45,0.00,,,0.00,Wunderground v.1.13,2013-03-02 22:42:00,
2013-03-02 16:43:00,27.4,8.8,30.24,NE,34,1.0,4.0,45,0.00,,,0.00,Wunderground v.1.13,2013-03-02 22:43:00,
2013-03-02 16:45:00,27.4,8.8,30.24,NE,34,2.0,2.0,45,0.00,,,0.00,Wunderground v.1.13,2013-03-02 22:45:00,
2013-03-02 16:47:00,27.5,8.4,30.23,NE,53,2.0,2.0,44,0.00,,,0.00,Wunderground v.1.13,2013-03-02 22:47:00,
2013-03-02 16:51:00,27.4,8.8,30.23,ENE,67,2.0,3.0,45,0.00,,,0.00,Wunderground v.1.13,2013-03-02 22:51:00,
2013-03-02 16:53:00,27.4,8.8,30.23,ENE,67,2.0,3.0,45,0.00,,,0.00,Wunderground v.1.13,2013-03-02 22:53:00,
2013-03-02 16:56:00,27.5,9.4,30.23,ENE,67,1.0,2.0,46,0.00,,,0.00,Wunderground v.1.13,2013-03-02 22:56:00,
2013-03-02 16:57:00,27.4,9.3,30.23,ENE,67,1.0,2.0,46,0.00,,,0.00,Wunderground v.1.13,2013-03-02 22:57:00,
2013-03-02 16:58:00,27.4,8.8,30.23,ENE,67,1.0,4.0,45,0.00,,,0.00,Wunderground v.1.13,2013-03-02 22:58:00,
2013-03-02 16:59:00,27.3,8.7,30.23,ENE,66,1.0,4.0,45,0.00,,,0.00,Wunderground v.1.13,2013-03-02 22:59:00,
2013-03-02 17:03:00,27.0,9.4,30.23,ENE,66,2.0,4.0,47,0.00,,,0.00,Wunderground v.1.13,2013-03-02 23:03:00,
2013-03-02 17:04:00,27.0,8.9,30.23,ENE,65,2.0,4.0,46,0.00,,,0.00,Wunderground v.1.13,2013-03-02 23:04:00,
2013-03-02 17:06:00,26.9,9.3,30.23,ENE,67,3.0,5.0,47,0.00,,,0.00,Wunderground v.1.13,2013-03-02 23:06:00,
2013-03-02 17:07:00,26.8,9.2,30.23,ENE,67,3.0,5.0,47,0.00,,,0.00,Wunderground v.1.13,2013-03-02 23:07:00,
2013-03-02 17:10:00,26.7,8.7,30.23,ENE,67,3.0,3.0,46,0.00,,,0.00,Wunderground v.1.13,2013-03-02 23:10:00,
2013-03-02 17:14:00,26.6,9.1,30.23,ENE,68,3.0,5.0,47,0.00,,,0.00,Wunderground v.1.13,2013-03-02 23:14:00,
2013-03-02 17:16:00,26.6,9.1,30.23,ENE,67,3.0,5.0,47,0.00,,,0.00,Wunderground v.1.13,2013-03-02 23:16:00,
2013-03-02 17:19:00,26.5,9.0,30.22,ENE,67,3.0,5.0,47,0.00,,,0.00,Wunderground v.1.13,2013-03-02 23:19:00,
2013-03-02 17:20:00,26.5,9.0,30.22,ENE,65,4.0,5.0,47,0.00,,,0.00,Wunderground v.1.13,2013-03-02 23:20:00,
2013-03-02 17:23:00,26.4,8.9,30.23,ENE,68,4.0,5.0,47,0.00,,,0.00,Wunderground v.1.13,2013-03-02 23:23:00,
2013-03-02 17:26:00,26.2,9.6,30.23,ENE,68,4.0,4.0,49,0.00,,,0.00,Wunderground v.1.13,2013-03-02 23:26:00,
2013-03-02 17:27:00,26.1,9.5,30.23,ENE,69,4.0,4.0,49,0.00,,,0.00,Wunderground v.1.13,2013-03-02 23:27:00,
2013-03-02 17:29:00,26.0,9.4,30.23,ENE,69,3.0,4.0,49,0.00,,,0.00,Wunderground v.1.13,2013-03-02 23:29:00,
2013-03-02 17:31:00,26.0,9.0,30.23,ENE,69,3.0,3.0,48,0.00,,,0.00,Wunderground v.1.13,2013-03-02 23:31:00,
2013-03-02 17:33:00,26.0,9.0,30.23,ENE,69,3.0,3.0,48,0.00,,,0.00,Wunderground v.1.13,2013-03-02 23:33:00,
2013-03-02 17:35:00,26.0,9.0,30.23,ENE,69,2.0,2.0,48,0.00,,,0.00,Wunderground v.1.13,2013-03-02 23:35:00,
2013-03-02 17:39:00,25.8,9.2,30.23,ENE,69,2.0,4.0,49,0.00,,,0.00,Wunderground v.1.13,2013-03-02 23:39:00,
2013-03-02 17:40:00,25.8,9.2,30.23,ENE,69,2.0,3.0,49,0.00,,,0.00,Wunderground v.1.13,2013-03-02 23:40:00,
2013-03-02 17:41:00,25.8,9.2,30.23,ENE,69,2.0,3.0,49,0.00,,,0.00,Wunderground v.1.13,2013-03-02 23:41:00,
2013-03-02 17:44:00,25.7,9.6,30.23,ENE,69,2.0,4.0,50,0.00,,,0.00,Wunderground v.1.13,2013-03-02 23:44:00,
2013-03-02 17:47:00,25.6,9.5,30.23,ENE,69,2.0,3.0,50,0.00,,,0.00,Wunderground v.1.13,2013-03-02 23:47:00,
2013-03-02 17:48:00,25.6,10.0,30.23,ENE,69,2.0,3.0,51,0.00,,,0.00,Wunderground v.1.13,2013-03-02 23:48:00,
2013-03-02 17:51:00,25.5,9.9,30.23,ENE,69,2.0,2.0,51,0.00,,,0.00,Wunderground v.1.13,2013-03-02 23:51:00,
2013-03-02 17:52:00,25.4,10.2,30.23,ENE,69,2.0,2.0,52,0.00,,,0.00,Wunderground v.1.13,2013-03-02 23:52:00,
2013-03-02 17:53:00,25.3,10.1,30.23,ENE,69,1.0,2.0,52,0.00,,,0.00,Wunderground v.1.13,2013-03-02 23:53:00,
2013-03-02 17:58:00,25.2,10.0,30.24,ENE,69,1.0,2.0,52,0.00,,,0.00,Wunderground v.1.13,2013-03-02 23:58:00,
2013-03-02 18:00:00,25.1,9.9,30.23,ENE,69,1.0,1.0,52,0.00,,,0.00,Wunderground v.1.13,2013-03-03 00:00:00,
2013-03-02 18:01:00,25.1,10.3,30.23,ENE,69,1.0,1.0,53,0.00,,,0.00,Wunderground v.1.13,2013-03-03 00:01:00,
2013-03-02 18:05:00,24.8,10.1,30.23,ENE,69,1.0,1.0,53,0.00,,,0.00,Wunderground v.1.13,2013-03-03 00:05:00,
2013-03-02 18:06:00,24.8,10.1,30.23,ENE,69,1.0,1.0,53,0.00,,,0.00,Wunderground v.1.13,2013-03-03 00:06:00,
2013-03-02 18:10:00,24.7,10.0,30.23,ENE,69,1.0,1.0,53,0.00,,,0.00,Wunderground v.1.13,2013-03-03 00:10:00,
2013-03-02 18:11:00,24.7,10.4,30.23,ENE,69,2.0,2.0,54,0.00,,,0.00,Wunderground v.1.13,2013-03-03 00:11:00,
2013-03-02 18:15:00,24.4,10.5,30.23,ENE,69,1.0,2.0,55,0.00,,,0.00,Wunderground v.1.13,2013-03-03 00:15:00,
2013-03-02 18:16:00,24.3,10.4,30.23,ENE,69,1.0,2.0,55,0.00,,,0.00,Wunderground v.1.13,2013-03-03 00:16:00,
2013-03-02 18:19:00,24.2,10.7,30.23,ENE,69,1.0,2.0,56,0.00,,,0.00,Wunderground v.1.13,2013-03-03 00:19:00,
2013-03-02 18:21:00,24.2,10.3,30.22,ENE,69,1.0,1.0,55,0.00,,,0.00,Wunderground v.1.13,2013-03-03 00:21:00,
2013-03-02 18:24:00,24.2,10.7,30.23,ENE,69,1.0,1.0,56,0.00,,,0.00,Wunderground v.1.13,2013-03-03 00:24:00,
2013-03-02 18:26:00,24.1,10.6,30.23,ENE,69,1.0,1.0,56,0.00,,,0.00,Wunderground v.1.13,2013-03-03 00:26:00,
2013-03-02 18:27:00,24.0,10.6,30.23,ENE,69,1.0,2.0,56,0.00,,,0.00,Wunderground v.1.13,2013-03-03 00:27:00,
2013-03-02 18:29:00,23.9,10.9,30.23,ENE,69,1.0,2.0,57,0.00,,,0.00,Wunderground v.1.13,2013-03-03 00:29:00,
2013-03-02 18:32:00,23.8,10.4,30.23,ENE,69,1.0,2.0,56,0.00,,,0.00,Wunderground v.1.13,2013-03-03 00:32:00,
2013-03-02 18:33:00,23.7,10.7,30.23,ENE,69,1.0,2.0,57,0.00,,,0.00,Wunderground v.1.13,2013-03-03 00:33:00,
2013-03-02 18:36:00,23.6,10.6,30.23,ENE,69,1.0,2.0,57,0.00,,,0.00,Wunderground v.1.13,2013-03-03 00:36:00,
2013-03-02 18:37:00,23.6,10.6,30.23,ENE,69,1.0,2.0,57,0.00,,,0.00,Wunderground v.1.13,2013-03-03 00:37:00,
2013-03-02 18:40:00,23.5,10.5,30.23,ENE,69,2.0,2.0,57,0.00,,,0.00,Wunderground v.1.13,2013-03-03 00:40:00,
2013-03-02 18:44:00,23.2,10.6,30.23,ENE,69,2.0,4.0,58,0.00,,,0.00,Wunderground v.1.13,2013-03-03 00:44:00,
2013-03-02 18:45:00,23.1,10.5,30.23,ENE,69,2.0,2.0,58,0.00,,,0.00,Wunderground v.1.13,2013-03-03 00:45:00,
2013-03-02 18:47:00,23.2,10.2,30.23,ENE,69,2.0,2.0,57,0.00,,,0.00,Wunderground v.1.13,2013-03-03 00:47:00,
2013-03-02 18:51:00,23.4,10.4,30.23,ENE,69,2.0,2.0,57,0.00,,,0.00,Wunderground v.1.13,2013-03-03 00:51:00,
2013-03-02 18:54:00,23.5,10.5,30.23,ENE,69,2.0,2.0,57,0.00,,,0.00,Wunderground v.1.13,2013-03-03 00:54:00,
2013-03-02 18:56:00,23.6,10.2,30.23,ENE,69,1.0,1.0,56,0.00,,,0.00,Wunderground v.1.13,2013-03-03 00:56:00,
2013-03-02 18:57:00,23.6,10.2,30.23,ENE,69,1.0,1.0,56,0.00,,,0.00,Wunderground v.1.13,2013-03-03 00:57:00,
2013-03-02 19:01:00,23.7,10.3,30.23,ENE,69,1.0,1.0,56,0.00,,,0.00,Wunderground v.1.13,2013-03-03 01:01:00,
2013-03-02 19:03:00,23.7,10.3,30.23,ENE,69,0.0,1.0,56,0.00,,,0.00,Wunderground v.1.13,2013-03-03 01:03:00,
2013-03-02 19:07:00,23.8,10.8,30.23,ENE,69,0.0,0.0,57,0.00,,,0.00,Wunderground v.1.13,2013-03-03 01:07:00,
2013-03-02 19:09:00,23.7,10.7,30.23,ENE,69,0.0,0.0,57,0.00,,,0.00,Wunderground v.1.13,2013-03-03 01:09:00,
2013-03-02 19:10:00,23.8,10.8,30.23,ENE,69,0.0,0.0,57,0.00,,,0.00,Wunderground v.1.13,2013-03-03 01:10:00,
2013-03-02 19:15:00,23.8,10.4,30.23,ENE,69,0.0,0.0,56,0.00,,,0.00,Wunderground v.1.13,2013-03-03 01:15:00,
2013-03-02 19:16:00,23.8,10.0,30.23,ENE,69,0.0,0.0,55,0.00,,,0.00,Wunderground v.1.13,2013-03-03 01:16:00,
2013-03-02 19:17:00,23.8,10.0,30.22,ENE,69,0.0,0.0,55,0.00,,,0.00,Wunderground v.1.13,2013-03-03 01:17:00,
2013-03-02 19:21:00,23.9,10.1,30.22,ENE,69,0.0,0.0,55,0.00,,,0.00,Wunderground v.1.13,2013-03-03 01:21:00,
2013-03-02 19:22:00,23.9,10.9,30.22,ENE,69,0.0,0.0,57,0.00,,,0.00,Wunderground v.1.13,2013-03-03 01:22:00,
2013-03-02 19:23:00,23.8,10.8,30.22,ENE,69,0.0,0.0,57,0.00,,,0.00,Wunderground v.1.13,2013-03-03 01:23:00,
2013-03-02 19:27:00,23.5,10.5,30.22,ENE,69,0.0,0.0,57,0.00,,,0.00,Wunderground v.1.13,2013-03-03 01:27:00,
2013-03-02 19:29:00,23.5,10.5,30.22,ENE,69,0.0,0.0,57,0.00,,,0.00,Wunderground v.1.13,2013-03-03 01:29:00,
2013-03-02 19:30:00,23.4,10.8,30.23,ENE,69,0.0,0.0,58,0.00,,,0.00,Wunderground v.1.13,2013-03-03 01:30:00,
2013-03-02 19:33:00,23.4,10.8,30.23,ENE,69,0.0,0.0,58,0.00,,,0.00,Wunderground v.1.13,2013-03-03 01:33:00,
2013-03-02 19:34:00,23.4,10.8,30.22,ENE,69,0.0,0.0,58,0.00,,,0.00,Wunderground v.1.13,2013-03-03 01:34:00,
2013-03-02 19:35:00,23.3,10.3,30.22,ENE,69,0.0,0.0,57,0.00,,,0.00,Wunderground v.1.13,2013-03-03 01:35:00,
2013-03-02 19:40:00,23.2,11.0,30.22,ENE,69,0.0,0.0,59,0.00,,,0.00,Wunderground v.1.13,2013-03-03 01:40:00,
2013-03-02 19:41:00,23.1,10.9,30.22,ENE,69,0.0,0.0,59,0.00,,,0.00,Wunderground v.1.13,2013-03-03 01:41:00,
2013-03-02 19:46:00,22.9,10.7,30.22,ENE,69,0.0,0.0,59,0.00,,,0.00,Wunderground v.1.13,2013-03-03 01:46:00,
2013-03-02 19:47:00,22.9,10.3,30.22,ENE,69,0.0,1.0,58,0.00,,,0.00,Wunderground v.1.13,2013-03-03 01:47:00,
2013-03-02 19:52:00,22.8,10.2,30.22,ENE,69,0.0,1.0,58,0.00,,,0.00,Wunderground v.1.13,2013-03-03 01:52:00,
2013-03-02 19:54:00,22.8,10.6,30.22,ENE,69,1.0,1.0,59,0.00,,,0.00,Wunderground v.1.13,2013-03-03 01:54:00,
2013-03-02 19:55:00,22.8,11.0,30.22,ENE,69,1.0,1.0,60,0.00,,,0.00,Wunderground v.1.13,2013-03-03 01:55:00,
2013-03-02 19:59:00,22.5,10.7,30.22,ENE,69,0.0,1.0,60,0.00,,,0.00,Wunderground v.1.13,2013-03-03 01:59:00,
2013-03-02 20:00:00,22.5,10.7,30.22,ENE,69,0.0,0.0,60,0.00,,,0.00,Wunderground v.1.13,2013-03-03 02:00:00,
2013-03-02 20:01:00,22.4,10.6,30.21,ENE,69,0.0,0.0,60,0.00,,,0.00,Wunderground v.1.13,2013-03-03 02:01:00,
2013-03-02 20:06:00,22.4,10.2,30.21,ENE,69,0.0,0.0,59,0.00,,,0.00,Wunderground v.1.13,2013-03-03 02:06:00,
2013-03-02 20:09:00,22.4,9.8,30.21,ENE,69,0.0,1.0,58,0.00,,,0.00,Wunderground v.1.13,2013-03-03 02:09:00,
2013-03-02 20:11:00,22.4,9.8,30.21,ENE,69,0.0,1.0,58,0.00,,,0.00,Wunderground v.1.13,2013-03-03 02:11:00,
2013-03-02 20:12:00,22.5,9.9,30.21,ENE,69,0.0,2.0,58,0.00,,,0.00,Wunderground v.1.13,2013-03-03 02:12:00,
2013-03-02 20:15:00,22.5,9.9,30.20,ENE,69,1.0,1.0,58,0.00,,,0.00,Wunderground v.1.13,2013-03-03 02:15:00,
2013-03-02 20:19:00,22.6,10.0,30.20,ENE,69,1.0,1.0,58,0.00,,,0.00,Wunderground v.1.13,2013-03-03 02:19:00,
2013-03-02 20:21:00,22.6,10.0,30.20,ENE,69,1.0,1.0,58,0.00,,,0.00,Wunderground v.1.13,2013-03-03 02:21:00,
2013-03-02 20:23:00,22.6,10.0,30.20,ENE,69,1.0,1.0,58,0.00,,,0.00,Wunderground v.1.13,2013-03-03 02:23:00,
2013-03-02 20:28:00,22.7,9.7,30.20,ENE,69,0.0,1.0,57,0.00,,,0.00,Wunderground v.1.13,2013-03-03 02:28:00,
2013-03-02 20:31:00,22.7,9.7,30.20,ENE,69,0.0,0.0,57,0.00,,,0.00,Wunderground v.1.13,2013-03-03 02:31:00,
2013-03-02 20:33:00,22.8,9.8,30.20,ENE,69,0.0,0.0,57,0.00,,,0.00,Wunderground v.1.13,2013-03-03 02:33:00,
2013-03-02 20:35:00,22.7,9.7,30.20,ENE,69,0.0,0.0,57,0.00,,,0.00,Wunderground v.1.13,2013-03-03 02:35:00,
2013-03-02 20:36:00,22.7,9.7,30.20,ENE,69,0.0,0.0,57,0.00,,,0.00,Wunderground v.1.13,2013-03-03 02:36:00,
2013-03-02 20:41:00,22.7,9.7,30.20,ENE,69,0.0,0.0,57,0.00,,,0.00,Wunderground v.1.13,2013-03-03 02:41:00,
2013-03-02 20:42:00,22.7,9.7,30.20,ENE,69,0.0,0.0,57,0.00,,,0.00,Wunderground v.1.13,2013-03-03 02:42:00,
2013-03-02 20:46:00,22.6,10.0,30.19,ENE,69,0.0,0.0,58,0.00,,,0.00,Wunderground v.1.13,2013-03-03 02:46:00,
2013-03-02 20:47:00,22.6,10.0,30.19,ENE,68,0.0,0.0,58,0.00,,,0.00,Wunderground v.1.13,2013-03-03 02:47:00,
2013-03-02 20:52:00,22.4,9.8,30.19,ENE,69,0.0,0.0,58,0.00,,,0.00,Wunderground v.1.13,2013-03-03 02:52:00,
2013-03-02 20:54:00,22.3,10.1,30.19,ENE,69,0.0,0.0,59,0.00,,,0.00,Wunderground v.1.13,2013-03-03 02:54:00,
2013-03-02 20:55:00,22.3,10.1,30.19,ENE,69,0.0,0.0,59,0.00,,,0.00,Wunderground v.1.13,2013-03-03 02:55:00,
2013-03-02 20:59:00,22.0,10.2,30.19,ENE,69,0.0,0.0,60,0.00,,,0.00,Wunderground v.1.13,2013-03-03 02:59:00,
2013-03-02 21:00:00,22.0,10.2,30.19,ENE,69,0.0,0.0,60,0.00,,,0.00,Wunderground v.1.13,2013-03-03 03:00:00,
2013-03-02 21:02:00,21.9,10.1,30.19,ENE,69,0.0,0.0,60,0.00,,,0.00,Wunderground v.1.13,2013-03-03 03:02:00,
2013-03-02 21:05:00,21.8,10.4,30.19,ENE,69,0.0,0.0,61,0.00,,,0.00,Wunderground v.1.13,2013-03-03 03:05:00,
2013-03-02 21:06:00,21.8,10.4,30.19,ENE,69,0.0,0.0,61,0.00,,,0.00,Wunderground v.1.13,2013-03-03 03:06:00,
2013-03-02 21:07:00,21.7,10.3,30.19,ENE,69,0.0,0.0,61,0.00,,,0.00,Wunderground v.1.13,2013-03-03 03:07:00,
2013-03-02 21:12:00,21.6,10.2,30.19,ENE,69,0.0,0.0,61,0.00,,,0.00,Wunderground v.1.13,2013-03-03 03:12:00,
2013-03-02 21:13:00,21.5,9.7,30.19,ENE,69,0.0,0.0,60,0.00,,,0.00,Wunderground v.1.13,2013-03-03 03:13:00,
2013-03-02 21:17:00,21.5,9.7,30.20,ENE,69,0.0,0.0,60,0.00,,,0.00,Wunderground v.1.13,2013-03-03 03:17:00,
2013-03-02 21:18:00,21.5,9.4,30.20,ENE,69,0.0,0.0,59,0.00,,,0.00,Wunderground v.1.13,2013-03-03 03:18:00,
2013-03-02 21:20:00,21.4,9.7,30.20,ENE,69,0.0,0.0,60,0.00,,,0.00,Wunderground v.1.13,2013-03-03 03:20:00,
2013-03-02 21:21:00,21.4,9.7,30.20,ENE,68,0.0,0.0,60,0.00,,,0.00,Wunderground v.1.13,2013-03-03 03:21:00,
2013-03-02 21:24:00,21.3,9.6,30.19,ENE,69,0.0,0.0,60,0.00,,,0.00,Wunderground v.1.13,2013-03-03 03:24:00,
2013-03-02 21:26:00,21.3,9.9,30.19,ENE,69,0.0,0.0,61,0.00,,,0.00,Wunderground v.1.13,2013-03-03 03:26:00,
2013-03-02 21:28:00,21.3,9.9,30.19,ENE,69,0.0,0.0,61,0.00,,,0.00,Wunderground v.1.13,2013-03-03 03:28:00,
2013-03-02 21:31:00,21.2,9.5,30.19,ENE,69,0.0,0.0,60,0.00,,,0.00,Wunderground v.1.13,2013-03-03 03:31:00,
2013-03-02 21:33:00,21.2,9.5,30.19,ENE,69,0.0,0.0,60,0.00,,,0.00,Wunderground v.1.13,2013-03-03 03:33:00,
2013-03-02 21:36:00,21.2,9.5,30.19,ENE,69,0.0,0.0,60,0.00,,,0.00,Wunderground v.1.13,2013-03-03 03:36:00,
2013-03-02 21:39:00,21.1,9.7,30.19,ENE,69,0.0,0.0,61,0.00,,,0.00,Wunderground v.1.13,2013-03-03 03:39:00,
2013-03-02 21:41:00,21.1,9.7,30.19,ENE,69,0.0,0.0,61,0.00,,,0.00,Wunderground v.1.13,2013-03-03 03:41:00,
2013-03-02 21:43:00,21.0,10.4,30.19,ENE,69,0.0,0.0,63,0.00,,,0.00,Wunderground v.1.13,2013-03-03 03:43:00,
2013-03-02 21:45:00,21.0,10.4,30.19,ENE,69,0.0,0.0,63,0.00,,,0.00,Wunderground v.1.13,2013-03-03 03:45:00,
2013-03-02 21:49:00,20.8,10.5,30.19,ENE,69,0.0,0.0,64,0.00,,,0.00,Wunderground v.1.13,2013-03-03 03:49:00,
2013-03-02 21:51:00,20.7,10.8,30.19,ENE,69,0.0,0.0,65,0.00,,,0.00,Wunderground v.1.13,2013-03-03 03:51:00,
2013-03-02 21:53:00,20.6,10.7,30.19,ENE,69,0.0,0.0,65,0.00,,,0.00,Wunderground v.1.13,2013-03-03 03:53:00,
2013-03-02 21:57:00,20.5,10.2,30.18,ENE,68,0.0,0.0,64,0.00,,,0.00,Wunderground v.1.13,2013-03-03 03:57:00,
2013-03-02 22:01:00,20.5,9.9,30.18,ENE,69,0.0,0.0,63,0.00,,,0.00,Wunderground v.1.13,2013-03-03 04:01:00,
2013-03-02 22:03:00,20.6,10.0,30.18,ENE,69,0.0,0.0,63,0.00,,,0.00,Wunderground v.1.13,2013-03-03 04:03:00,
2013-03-02 22:06:00,20.7,10.1,30.18,ENE,69,0.0,0.0,63,0.00,,,0.00,Wunderground v.1.13,2013-03-03 04:06:00,
2013-03-02 22:10:00,20.8,10.5,30.18,ENE,69,0.0,0.0,64,0.00,,,0.00,Wunderground v.1.13,2013-03-03 04:10:00,
2013-03-02 22:12:00,20.8,10.9,30.18,ENE,69,0.0,0.0,65,0.00,,,0.00,Wunderground v.1.13,2013-03-03 04:12:00,
2013-03-02 22:13:00,20.7,10.8,30.18,ENE,69,0.0,0.0,65,0.00,,,0.00,Wunderground v.1.13,2013-03-03 04:13:00,
2013-03-02 22:16:00,20.7,10.8,30.18,ENE,69,0.0,0.0,65,0.00,,,0.00,Wunderground v.1.13,2013-03-03 04:16:00,
2013-03-02 22:18:00,20.7,10.4,30.18,ENE,69,0.0,0.0,64,0.00,,,0.00,Wunderground v.1.13,2013-03-03 04:18:00,
2013-03-02 22:22:00,20.8,10.2,30.18,ENE,69,0.0,0.0,63,0.00,,,0.00,Wunderground v.1.13,2013-03-03 04:22:00,
2013-03-02 22:24:00,20.8,9.8,30.18,ENE,69,0.0,0.0,62,0.00,,,0.00,Wunderground v.1.13,2013-03-03 04:24:00,
2013-03-02 22:28:00,20.8,10.5,30.18,ENE,69,0.0,0.0,64,0.00,,,0.00,Wunderground v.1.13,2013-03-03 04:28:00,
2013-03-02 22:30:00,20.6,11.0,30.18,ENE,69,0.0,0.0,66,0.00,,,0.00,Wunderground v.1.13,2013-03-03 04:30:00,
2013-03-02 22:32:00,20.6,11.0,30.18,ENE,69,0.0,0.0,66,0.00,,,0.00,Wunderground v.1.13,2013-03-03 04:32:00,
2013-03-02 22:33:00,20.5,10.9,30.18,ENE,69,0.0,0.0,66,0.00,,,0.00,Wunderground v.1.13,2013-03-03 04:33:00,
2013-03-02 22:34:00,20.5,10.9,30.18,ENE,69,0.0,0.0,66,0.00,,,0.00,Wunderground v.1.13,2013-03-03 04:34:00,
2013-03-02 22:39:00,20.3,11.1,30.18,ENE,69,0.0,0.0,67,0.00,,,0.00,Wunderground v.1.13,2013-03-03 04:39:00,
2013-03-02 22:40:00,20.3,11.1,30.18,ENE,69,0.0,0.0,67,0.00,,,0.00,Wunderground v.1.13,2013-03-03 04:40:00,
2013-03-02 22:44:00,20.1,10.9,30.18,ENE,69,0.0,0.0,67,0.00,,,0.00,Wunderground v.1.13,2013-03-03 04:44:00,
2013-03-02 22:46:00,20.1,10.9,30.17,ENE,69,0.0,0.0,67,0.00,,,0.00,Wunderground v.1.13,2013-03-03 04:46:00,
2013-03-02 22:47:00,20.1,11.2,30.17,ENE,69,0.0,0.0,68,0.00,,,0.00,Wunderground v.1.13,2013-03-03 04:47:00,
2013-03-02 22:50:00,20.1,10.9,30.17,ENE,69,0.0,0.0,67,0.00,,,0.00,Wunderground v.1.13,2013-03-03 04:50:00,
2013-03-02 22:53:00,20.1,10.9,30.17,ENE,69,0.0,0.0,67,0.00,,,0.00,Wunderground v.1.13,2013-03-03 04:53:00,
2013-03-02 22:54:00,20.1,10.6,30.17,ENE,69,0.0,0.0,66,0.00,,,0.00,Wunderground v.1.13,2013-03-03 04:54:00,
2013-03-02 22:57:00,20.1,10.6,30.17,ENE,69,0.0,0.0,66,0.00,,,0.00,Wunderground v.1.13,2013-03-03 04:57:00,
2013-03-02 22:59:00,20.1,10.6,30.17,ENE,69,0.0,0.0,66,0.00,,,0.00,Wunderground v.1.13,2013-03-03 04:59:00,
2013-03-02 23:00:00,20.1,10.2,30.17,ENE,69,0.0,0.0,65,0.00,,,0.00,Wunderground v.1.13,2013-03-03 05:00:00,
2013-03-02 23:02:00,20.1,10.2,30.17,ENE,69,0.0,0.0,65,0.00,,,0.00,Wunderground v.1.13,2013-03-03 05:02:00,
2013-03-02 23:03:00,20.1,10.2,30.17,ENE,69,0.0,0.0,65,0.00,,,0.00,Wunderground v.1.13,2013-03-03 05:03:00,
2013-03-02 23:04:00,20.2,10.3,30.17,ENE,69,0.0,0.0,65,0.00,,,0.00,Wunderground v.1.13,2013-03-03 05:04:00,
2013-03-02 23:05:00,20.2,10.3,30.17,ENE,69,0.0,0.0,65,0.00,,,0.00,Wunderground v.1.13,2013-03-03 05:05:00,
2013-03-02 23:09:00,20.3,10.4,30.17,ENE,69,0.0,0.0,65,0.00,,,0.00,Wunderground v.1.13,2013-03-03 05:09:00,
2013-03-02 23:10:00,20.4,10.5,30.17,ENE,69,0.0,0.0,65,0.00,,,0.00,Wunderground v.1.13,2013-03-03 05:10:00,
2013-03-02 23:11:00,20.4,10.5,30.17,ENE,69,0.0,0.0,65,0.00,,,0.00,Wunderground v.1.13,2013-03-03 05:11:00,
2013-03-02 23:13:00,20.4,10.5,30.17,ENE,69,0.0,0.0,65,0.00,,,0.00,Wunderground v.1.13,2013-03-03 05:13:00,
2013-03-02 23:17:00,20.5,10.9,30.16,ENE,69,0.0,0.0,66,0.00,,,0.00,Wunderground v.1.13,2013-03-03 05:17:00,
2013-03-02 23:18:00,20.5,10.9,30.16,ENE,69,0.0,0.0,66,0.00,,,0.00,Wunderground v.1.13,2013-03-03 05:18:00,
2013-03-02 23:19:00,20.5,10.9,30.16,ENE,69,0.0,0.0,66,0.00,,,0.00,Wunderground v.1.13,2013-03-03 05:19:00,
2013-03-02 23:20:00,20.5,10.9,30.16,ENE,69,0.0,0.0,66,0.00,,,0.00,Wunderground v.1.13,2013-03-03 05:20:00,
2013-03-02 23:24:00,20.6,11.0,30.16,ENE,69,0.0,0.0,66,0.00,,,0.00,Wunderground v.1.13,2013-03-03 05:24:00,
2013-03-02 23:25:00,20.7,11.1,30.16,ENE,69,0.0,0.0,66,0.00,,,0.00,Wunderground v.1.13,2013-03-03 05:25:00,
2013-03-02 23:26:00,20.7,10.8,30.16,ENE,69,0.0,0.0,65,0.00,,,0.00,Wunderground v.1.13,2013-03-03 05:26:00,
2013-03-02 23:27:00,20.7,10.8,30.16,ENE,69,0.0,0.0,65,0.00,,,0.00,Wunderground v.1.13,2013-03-03 05:27:00,
2013-03-02 23:31:00,20.6,11.0,30.16,ENE,69,0.0,0.0,66,0.00,,,0.00,Wunderground v.1.13,2013-03-03 05:31:00,
2013-03-02 23:32:00,20.5,10.9,30.16,ENE,69,0.0,0.0,66,0.00,,,0.00,Wunderground v.1.13,2013-03-03 05:32:00,
2013-03-02 23:34:00,20.4,11.2,30.16,ENE,69,0.0,0.0,67,0.00,,,0.00,Wunderground v.1.13,2013-03-03 05:34:00,
2013-03-02 23:36:00,20.3,11.1,30.16,ENE,69,0.0,0.0,67,0.00,,,0.00,Wunderground v.1.13,2013-03-03 05:36:00,
2013-03-02 23:40:00,20.2,11.0,30.16,ENE,69,0.0,0.0,67,0.00,,,0.00,Wunderground v.1.13,2013-03-03 05:40:00,
2013-03-02 23:42:00,20.2,11.0,30.16,ENE,69,0.0,0.0,67,0.00,,,0.00,Wunderground v.1.13,2013-03-03 05:42:00,
2013-03-02 23:43:00,20.1,10.9,30.16,ENE,69,0.0,0.0,67,0.00,,,0.00,Wunderground v.1.13,2013-03-03 05:43:00,
2013-03-02 23:44:00,20.1,10.9,30.16,ENE,69,0.0,0.0,67,0.00,,,0.00,Wunderground v.1.13,2013-03-03 05:44:00,
2013-03-02 23:48:00,20.1,10.6,30.16,ENE,69,0.0,0.0,66,0.00,,,0.00,Wunderground v.1.13,2013-03-03 05:48:00,
2013-03-02 23:50:00,20.1,10.2,30.16,ENE,69,0.0,0.0,65,0.00,,,0.00,Wunderground v.1.13,2013-03-03 05:50:00,
2013-03-02 23:52:00,20.1,10.2,30.16,ENE,69,0.0,0.0,65,0.00,,,0.00,Wunderground v.1.13,2013-03-03 05:52:00,
2013-03-02 23:53:00,20.1,9.9,30.16,ENE,69,0.0,0.0,64,0.00,,,0.00,Wunderground v.1.13,2013-03-03 05:53:00,
2013-03-02 23:58:00,20.1,10.2,30.15,ENE,69,0.0,0.0,65,0.00,,,0.00,Wunderground v.1.13,2013-03-03 05:58:00,
2013-03-02 23:59:00,20.1,10.2,30.15,ENE,69,0.0,0.0,65,0.00,,,0.00,Wunderground v.1.13,2013-03-03 05:59:00,